Time,TemperatureF,DewpointF,PressureIn,WindDirection,WindDirectionDegrees,WindSpeedMPH,WindSpeedGustMPH,Humidity,HourlyPrecipIn,Conditions,Clouds,dailyrainin,SoftwareType,DateUTC
2013-04-28 00:01:00,60.0,52.4,30.21,SW,219,1.0,1.0,76,0.00,,,0.00,Wunderground v.1.15,2013-04-28 04:01:00,
2013-04-28 00:02:00,60.0,52.4,30.21,SW,219,1.0,1.0,76,0.00,,,0.00,Wunderground v.1.15,2013-04-28 04:02:00,
2013-04-28 00:06:00,60.0,52.4,30.21,SSW,208,0.0,1.0,76,0.00,,,0.00,Wunderground v.1.15,2013-04-28 04:06:00,
2013-04-28 00:07:00,60.0,52.4,30.21,SSW,208,0.0,1.0,76,0.00,,,0.00,Wunderground v.1.15,2013-04-28 04:07:00,
2013-04-28 00:09:00,59.9,52.3,30.21,SSW,208,1.0,1.0,76,0.00,,,0.00,Wunderground v.1.15,2013-04-28 04:09:00,
2013-04-28 00:11:00,59.9,52.7,30.21,SSW,208,0.0,0.0,77,0.00,,,0.00,Wunderground v.1.15,2013-04-28 04:11:00,
2013-04-28 00:14:00,59.9,52.7,30.21,SSW,208,0.0,0.0,77,0.00,,,0.00,Wunderground v.1.15,2013-04-28 04:14:00,
2013-04-28 00:15:00,59.9,52.7,30.21,SSW,208,0.0,0.0,77,0.00,,,0.00,Wunderground v.1.15,2013-04-28 04:15:00,
2013-04-28 00:17:00,59.8,52.6,30.21,SSW,208,0.0,0.0,77,0.00,,,0.00,Wunderground v.1.15,2013-04-28 04:17:00,
2013-04-28 00:18:00,59.8,52.6,30.21,SSW,208,0.0,0.0,77,0.00,,,0.00,Wunderground v.1.15,2013-04-28 04:18:00,
2013-04-28 00:20:00,59.8,52.6,30.21,SSW,208,0.0,0.0,77,0.00,,,0.00,Wunderground v.1.15,2013-04-28 04:20:00,
2013-04-28 00:22:00,59.7,52.5,30.21,SSW,208,0.0,0.0,77,0.00,,,0.00,Wunderground v.1.15,2013-04-28 04:22:00,
2013-04-28 00:23:00,59.7,52.5,30.21,SSW,208,0.0,0.0,77,0.00,,,0.00,Wunderground v.1.15,2013-04-28 04:23:00,
2013-04-28 00:24:00,59.7,52.5,30.21,SW,231,1.0,1.0,77,0.00,,,0.00,Wunderground v.1.15,2013-04-28 04:24:00,
2013-04-28 00:29:00,59.6,52.7,30.21,SW,231,0.0,1.0,78,0.00,,,0.00,Wunderground v.1.15,2013-04-28 04:29:00,
2013-04-28 00:30:00,59.6,52.7,30.21,SW,231,0.0,0.0,78,0.00,,,0.00,Wunderground v.1.15,2013-04-28 04:30:00,
2013-04-28 00:31:00,59.6,52.7,30.21,SW,231,0.0,0.0,78,0.00,,,0.00,Wunderground v.1.15,2013-04-28 04:31:00,
2013-04-28 00:32:00,59.6,52.7,30.22,SW,231,0.0,0.0,78,0.00,,,0.00,Wunderground v.1.15,2013-04-28 04:32:00,
2013-04-28 00:34:00,59.5,52.6,30.22,SW,231,0.0,0.0,78,0.00,,,0.00,Wunderground v.1.15,2013-04-28 04:34:00,
2013-04-28 00:36:00,59.5,52.6,30.21,SW,231,0.0,0.0,78,0.00,,,0.00,Wunderground v.1.15,2013-04-28 04:36:00,
2013-04-28 00:40:00,59.4,52.5,30.21,SW,231,0.0,0.0,78,0.00,,,0.00,Wunderground v.1.15,2013-04-28 04:40:00,
2013-04-28 00:44:00,59.4,52.5,30.21,SW,231,0.0,0.0,78,0.00,,,0.00,Wunderground v.1.15,2013-04-28 04:44:00,
2013-04-28 00:45:00,59.4,52.5,30.21,SW,230,0.0,0.0,78,0.00,,,0.00,Wunderground v.1.15,2013-04-28 04:45:00,
2013-04-28 00:46:00,59.4,52.5,30.21,SW,231,0.0,0.0,78,0.00,,,0.00,Wunderground v.1.15,2013-04-28 04:46:00,
2013-04-28 00:47:00,59.4,52.5,30.21,SW,231,0.0,0.0,78,0.00,,,0.00,Wunderground v.1.15,2013-04-28 04:47:00,
2013-04-28 00:50:00,59.4,52.5,30.20,SW,231,0.0,0.0,78,0.00,,,0.00,Wunderground v.1.15,2013-04-28 04:50:00,
2013-04-28 00:54:00,59.3,52.4,30.20,SW,230,0.0,0.0,78,0.00,,,0.00,Wunderground v.1.15,2013-04-28 04:54:00,
2013-04-28 00:55:00,59.3,52.4,30.20,SW,231,0.0,0.0,78,0.00,,,0.00,Wunderground v.1.15,2013-04-28 04:55:00,
2013-04-28 00:57:00,59.3,52.4,30.21,SW,231,0.0,0.0,78,0.00,,,0.00,Wunderground v.1.15,2013-04-28 04:57:00,
2013-04-28 00:58:00,59.3,52.4,30.21,SW,231,0.0,0.0,78,0.00,,,0.00,Wunderground v.1.15,2013-04-28 04:58:00,
2013-04-28 00:59:00,59.3,52.4,30.21,SW,231,0.0,0.0,78,0.00,,,0.00,Wunderground v.1.15,2013-04-28 04:59:00,
2013-04-28 01:03:00,59.2,52.7,30.21,SW,231,0.0,0.0,79,0.00,,,0.00,Wunderground v.1.15,2013-04-28 05:03:00,
2013-04-28 01:04:00,59.2,52.7,30.21,SW,231,0.0,0.0,79,0.00,,,0.00,Wunderground v.1.15,2013-04-28 05:04:00,
2013-04-28 01:08:00,59.2,53.0,30.21,SW,231,0.0,0.0,80,0.00,,,0.00,Wunderground v.1.15,2013-04-28 05:08:00,
2013-04-28 01:09:00,59.2,53.0,30.21,SW,231,0.0,0.0,80,0.00,,,0.00,Wunderground v.1.15,2013-04-28 05:09:00,
2013-04-28 01:10:00,59.1,52.9,30.21,SW,231,0.0,0.0,80,0.00,,,0.00,Wunderground v.1.15,2013-04-28 05:10:00,
2013-04-28 01:12:00,59.1,52.9,30.21,SW,231,0.0,0.0,80,0.00,,,0.00,Wunderground v.1.15,2013-04-28 05:12:00,
2013-04-28 01:13:00,59.0,52.8,30.21,SW,231,0.0,0.0,80,0.00,,,0.00,Wunderground v.1.15,2013-04-28 05:13:00,
2013-04-28 01:17:00,59.0,52.8,30.20,SW,231,0.0,0.0,80,0.00,,,0.00,Wunderground v.1.15,2013-04-28 05:17:00,
2013-04-28 01:18:00,59.0,52.8,30.20,SW,231,0.0,0.0,80,0.00,,,0.00,Wunderground v.1.15,2013-04-28 05:18:00,
2013-04-28 01:20:00,59.0,52.8,30.20,SW,231,0.0,0.0,80,0.00,,,0.00,Wunderground v.1.15,2013-04-28 05:20:00,
2013-04-28 01:23:00,58.9,52.7,30.20,SW,231,0.0,0.0,80,0.00,,,0.00,Wunderground v.1.15,2013-04-28 05:23:00,
2013-04-28 01:24:00,58.9,52.7,30.20,SW,231,0.0,0.0,80,0.00,,,0.00,Wunderground v.1.15,2013-04-28 05:24:00,
2013-04-28 01:26:00,58.9,52.7,30.20,SW,231,0.0,0.0,80,0.00,,,0.00,Wunderground v.1.15,2013-04-28 05:26:00,
2013-04-28 01:27:00,58.9,52.7,30.20,SW,231,0.0,0.0,80,0.00,,,0.00,Wunderground v.1.15,2013-04-28 05:27:00,
2013-04-28 01:32:00,58.8,52.6,30.20,SW,231,0.0,0.0,80,0.00,,,0.00,Wunderground v.1.15,2013-04-28 05:32:00,
2013-04-28 01:33:00,58.8,52.6,30.20,SW,231,0.0,0.0,80,0.00,,,0.00,Wunderground v.1.15,2013-04-28 05:33:00,
2013-04-28 01:34:00,58.8,52.6,30.20,SW,231,0.0,0.0,80,0.00,,,0.00,Wunderground v.1.15,2013-04-28 05:34:00,
2013-04-28 01:39:00,58.7,52.5,30.19,SW,231,0.0,0.0,80,0.00,,,0.00,Wunderground v.1.15,2013-04-28 05:39:00,
2013-04-28 01:40:00,58.8,52.6,30.19,SW,231,0.0,0.0,80,0.00,,,0.00,Wunderground v.1.15,2013-04-28 05:40:00,
2013-04-28 01:43:00,58.7,52.5,30.19,SW,231,0.0,0.0,80,0.00,,,0.00,Wunderground v.1.15,2013-04-28 05:43:00,
2013-04-28 01:45:00,58.7,52.5,30.19,SW,231,0.0,0.0,80,0.00,,,0.00,Wunderground v.1.15,2013-04-28 05:45:00,
2013-04-28 01:47:00,58.6,52.4,30.19,SW,231,0.0,0.0,80,0.00,,,0.00,Wunderground v.1.15,2013-04-28 05:47:00,
2013-04-28 01:49:00,58.6,52.4,30.19,SW,231,0.0,0.0,80,0.00,,,0.00,Wunderground v.1.15,2013-04-28 05:49:00,
2013-04-28 01:52:00,58.5,52.7,30.20,SW,231,0.0,0.0,81,0.00,,,0.00,Wunderground v.1.15,2013-04-28 05:52:00,
2013-04-28 01:53:00,58.5,52.7,30.19,SW,231,0.0,0.0,81,0.00,,,0.00,Wunderground v.1.15,2013-04-28 05:53:00,
2013-04-28 01:54:00,58.5,52.7,30.20,SW,231,0.0,0.0,81,0.00,,,0.00,Wunderground v.1.15,2013-04-28 05:54:00,
2013-04-28 01:56:00,58.5,52.7,30.20,SW,231,0.0,0.0,81,0.00,,,0.00,Wunderground v.1.15,2013-04-28 05:56:00,
2013-04-28 02:00:00,58.4,52.9,30.19,SW,231,0.0,0.0,82,0.00,,,0.00,Wunderground v.1.15,2013-04-28 06:00:00,
2013-04-28 02:01:00,58.3,52.8,30.19,SW,231,0.0,0.0,82,0.00,,,0.00,Wunderground v.1.15,2013-04-28 06:01:00,
2013-04-28 02:06:00,58.2,52.7,30.19,SW,231,0.0,0.0,82,0.00,,,0.00,Wunderground v.1.15,2013-04-28 06:06:00,
2013-04-28 02:07:00,58.2,52.7,30.19,SW,231,0.0,0.0,82,0.00,,,0.00,Wunderground v.1.15,2013-04-28 06:07:00,
2013-04-28 02:11:00,58.0,52.5,30.20,SW,231,0.0,0.0,82,0.00,,,0.00,Wunderground v.1.15,2013-04-28 06:11:00,
2013-04-28 02:12:00,58.0,52.5,30.19,SW,231,0.0,0.0,82,0.00,,,0.00,Wunderground v.1.15,2013-04-28 06:12:00,
2013-04-28 02:16:00,57.8,52.3,30.19,SW,231,0.0,0.0,82,0.00,,,0.00,Wunderground v.1.15,2013-04-28 06:16:00,
2013-04-28 02:17:00,57.8,52.3,30.19,SW,231,0.0,0.0,82,0.00,,,0.00,Wunderground v.1.15,2013-04-28 06:17:00,
2013-04-28 02:21:00,57.6,52.5,30.19,SW,231,0.0,0.0,83,0.00,,,0.00,Wunderground v.1.15,2013-04-28 06:21:00,
2013-04-28 02:22:00,57.6,52.5,30.19,SW,231,0.0,0.0,83,0.00,,,0.00,Wunderground v.1.15,2013-04-28 06:22:00,
2013-04-28 02:26:00,57.4,52.6,30.19,SW,231,0.0,0.0,84,0.00,,,0.00,Wunderground v.1.15,2013-04-28 06:26:00,
2013-04-28 02:27:00,57.4,52.6,30.19,SW,231,0.0,0.0,84,0.00,,,0.00,Wunderground v.1.15,2013-04-28 06:27:00,
2013-04-28 02:31:00,57.2,52.4,30.18,SW,231,0.0,0.0,84,0.00,,,0.00,Wunderground v.1.15,2013-04-28 06:31:00,
2013-04-28 02:32:00,57.2,52.4,30.18,SW,231,0.0,0.0,84,0.00,,,0.00,Wunderground v.1.15,2013-04-28 06:32:00,
2013-04-28 02:33:00,57.2,52.4,30.18,SW,231,0.0,0.0,84,0.00,,,0.00,Wunderground v.1.15,2013-04-28 06:33:00,
2013-04-28 02:37:00,57.0,52.2,30.19,SW,231,0.0,0.0,84,0.00,,,0.00,Wunderground v.1.15,2013-04-28 06:37:00,
2013-04-28 02:38:00,57.0,52.2,30.19,SW,230,0.0,0.0,84,0.00,,,0.00,Wunderground v.1.15,2013-04-28 06:38:00,
2013-04-28 02:42:00,56.8,52.0,30.19,SW,231,0.0,0.0,84,0.00,,,0.00,Wunderground v.1.15,2013-04-28 06:42:00,
2013-04-28 02:43:00,56.8,52.0,30.19,SW,231,0.0,0.0,84,0.00,,,0.00,Wunderground v.1.15,2013-04-28 06:43:00,
2013-04-28 02:47:00,56.6,51.8,30.19,SW,231,0.0,0.0,84,0.00,,,0.00,Wunderground v.1.15,2013-04-28 06:47:00,
2013-04-28 02:48:00,56.6,51.8,30.19,SW,231,0.0,0.0,84,0.00,,,0.00,Wunderground v.1.15,2013-04-28 06:48:00,
2013-04-28 02:49:00,56.6,51.8,30.19,SW,231,0.0,0.0,84,0.00,,,0.00,Wunderground v.1.15,2013-04-28 06:49:00,
2013-04-28 02:52:00,56.5,52.0,30.18,SW,231,0.0,0.0,85,0.00,,,0.00,Wunderground v.1.15,2013-04-28 06:52:00,
2013-04-28 02:53:00,56.5,52.0,30.18,SW,231,0.0,0.0,85,0.00,,,0.00,Wunderground v.1.15,2013-04-28 06:53:00,
2013-04-28 02:54:00,56.5,52.0,30.18,SW,231,0.0,0.0,85,0.00,,,0.00,Wunderground v.1.15,2013-04-28 06:54:00,
2013-04-28 02:58:00,56.4,51.9,30.18,SW,231,0.0,0.0,85,0.00,,,0.00,Wunderground v.1.15,2013-04-28 06:58:00,
2013-04-28 02:59:00,56.4,51.9,30.18,SW,231,0.0,0.0,85,0.00,,,0.00,Wunderground v.1.15,2013-04-28 06:59:00,
2013-04-28 03:03:00,56.4,52.3,30.18,SW,231,0.0,0.0,86,0.00,,,0.00,Wunderground v.1.15,2013-04-28 07:03:00,
2013-04-28 03:04:00,56.4,52.3,30.18,SW,231,0.0,0.0,86,0.00,,,0.00,Wunderground v.1.15,2013-04-28 07:04:00,
2013-04-28 03:08:00,56.4,52.3,30.18,SW,231,0.0,0.0,86,0.00,,,0.00,Wunderground v.1.15,2013-04-28 07:08:00,
2013-04-28 03:09:00,56.4,52.3,30.17,SW,231,0.0,0.0,86,0.00,,,0.00,Wunderground v.1.15,2013-04-28 07:09:00,
2013-04-28 03:14:00,56.4,51.9,30.17,SW,231,0.0,0.0,85,0.00,,,0.00,Wunderground v.1.15,2013-04-28 07:14:00,
2013-04-28 03:15:00,56.3,51.8,30.17,SW,231,0.0,0.0,85,0.00,,,0.00,Wunderground v.1.15,2013-04-28 07:15:00,
2013-04-28 03:19:00,56.3,51.8,30.18,SW,231,0.0,0.0,85,0.00,,,0.00,Wunderground v.1.15,2013-04-28 07:19:00,
2013-04-28 03:20:00,56.3,51.8,30.17,SW,231,0.0,0.0,85,0.00,,,0.00,Wunderground v.1.15,2013-04-28 07:20:00,
2013-04-28 03:24:00,56.2,51.4,30.17,SW,231,0.0,0.0,84,0.00,,,0.00,Wunderground v.1.15,2013-04-28 07:24:00,
2013-04-28 03:25:00,56.2,51.4,30.17,SW,231,0.0,0.0,84,0.00,,,0.00,Wunderground v.1.15,2013-04-28 07:25:00,
2013-04-28 03:26:00,56.2,51.1,30.17,SW,231,0.0,0.0,83,0.00,,,0.00,Wunderground v.1.15,2013-04-28 07:26:00,
2013-04-28 03:29:00,56.2,50.4,30.17,SSW,195,0.0,1.0,81,0.00,,,0.00,Wunderground v.1.15,2013-04-28 07:29:00,
2013-04-28 03:30:00,56.2,50.4,30.17,SSW,195,0.0,1.0,81,0.00,,,0.00,Wunderground v.1.15,2013-04-28 07:30:00,
2013-04-28 03:31:00,56.2,50.4,30.17,SSW,195,0.0,0.0,81,0.00,,,0.00,Wunderground v.1.15,2013-04-28 07:31:00,
2013-04-28 03:34:00,56.4,50.3,30.18,SSW,195,0.0,0.0,80,0.00,,,0.00,Wunderground v.1.15,2013-04-28 07:34:00,
2013-04-28 03:35:00,56.5,50.1,30.18,SSW,195,0.0,0.0,79,0.00,,,0.00,Wunderground v.1.15,2013-04-28 07:35:00,
2013-04-28 03:36:00,56.5,50.1,30.18,SSW,195,0.0,0.0,79,0.00,,,0.00,Wunderground v.1.15,2013-04-28 07:36:00,
2013-04-28 03:39:00,56.6,49.8,30.17,SSW,195,0.0,0.0,78,0.00,,,0.00,Wunderground v.1.15,2013-04-28 07:39:00,
2013-04-28 03:40:00,56.6,49.8,30.17,SSW,195,0.0,0.0,78,0.00,,,0.00,Wunderground v.1.15,2013-04-28 07:40:00,
2013-04-28 03:41:00,56.7,49.9,30.17,SSW,195,0.0,0.0,78,0.00,,,0.00,Wunderground v.1.15,2013-04-28 07:41:00,
2013-04-28 03:44:00,56.8,49.7,30.18,SSW,195,0.0,0.0,77,0.00,,,0.00,Wunderground v.1.15,2013-04-28 07:44:00,
2013-04-28 03:45:00,56.8,49.3,30.17,SSW,195,0.0,0.0,76,0.00,,,0.00,Wunderground v.1.15,2013-04-28 07:45:00,
2013-04-28 03:46:00,56.8,49.3,30.17,SSW,195,0.0,0.0,76,0.00,,,0.00,Wunderground v.1.15,2013-04-28 07:46:00,
2013-04-28 03:49:00,57.0,49.5,30.17,SSW,195,0.0,0.0,76,0.00,,,0.00,Wunderground v.1.15,2013-04-28 07:49:00,
2013-04-28 03:51:00,57.0,49.2,30.17,SSW,195,0.0,0.0,75,0.00,,,0.00,Wunderground v.1.15,2013-04-28 07:51:00,
2013-04-28 03:54:00,57.1,49.2,30.17,SSW,195,0.0,0.0,75,0.00,,,0.00,Wunderground v.1.15,2013-04-28 07:54:00,
2013-04-28 03:56:00,57.2,49.3,30.17,SSW,195,0.0,0.0,75,0.00,,,0.00,Wunderground v.1.15,2013-04-28 07:56:00,
2013-04-28 03:59:00,57.2,49.3,30.17,SSW,195,0.0,0.0,75,0.00,,,0.00,Wunderground v.1.15,2013-04-28 07:59:00,
2013-04-28 04:01:00,57.3,49.1,30.17,SSW,195,0.0,0.0,74,0.00,,,0.00,Wunderground v.1.15,2013-04-28 08:01:00,
2013-04-28 04:04:00,57.4,48.8,30.17,SSW,195,0.0,0.0,73,0.00,,,0.00,Wunderground v.1.15,2013-04-28 08:04:00,
2013-04-28 04:06:00,57.4,48.8,30.17,SSW,195,0.0,0.0,73,0.00,,,0.00,Wunderground v.1.15,2013-04-28 08:06:00,
2013-04-28 04:07:00,57.4,48.8,30.17,SSW,195,0.0,0.0,73,0.00,,,0.00,Wunderground v.1.15,2013-04-28 08:07:00,
2013-04-28 04:10:00,57.4,48.8,30.17,SSW,195,0.0,0.0,73,0.00,,,0.00,Wunderground v.1.15,2013-04-28 08:10:00,
2013-04-28 04:11:00,57.4,48.8,30.17,SSW,195,0.0,0.0,73,0.00,,,0.00,Wunderground v.1.15,2013-04-28 08:11:00,
2013-04-28 04:12:00,57.5,48.9,30.17,SSW,195,0.0,0.0,73,0.00,,,0.00,Wunderground v.1.15,2013-04-28 08:12:00,
2013-04-28 04:15:00,57.5,49.3,30.17,SSW,195,0.0,1.0,74,0.00,,,0.00,Wunderground v.1.15,2013-04-28 08:15:00,
2013-04-28 04:16:00,57.5,49.3,30.17,SSW,195,0.0,1.0,74,0.00,,,0.00,Wunderground v.1.15,2013-04-28 08:16:00,
2013-04-28 04:17:00,57.5,49.3,30.17,SSW,195,0.0,1.0,74,0.00,,,0.00,Wunderground v.1.15,2013-04-28 08:17:00,
2013-04-28 04:20:00,57.5,49.3,30.17,SSW,195,0.0,0.0,74,0.00,,,0.00,Wunderground v.1.15,2013-04-28 08:20:00,
2013-04-28 04:21:00,57.4,49.2,30.17,SSW,195,0.0,0.0,74,0.00,,,0.00,Wunderground v.1.15,2013-04-28 08:21:00,
2013-04-28 04:22:00,57.4,49.2,30.17,SSW,195,0.0,0.0,74,0.00,,,0.00,Wunderground v.1.15,2013-04-28 08:22:00,
2013-04-28 04:23:00,57.4,49.2,30.17,SSW,195,0.0,0.0,74,0.00,,,0.00,Wunderground v.1.15,2013-04-28 08:23:00,
2013-04-28 04:26:00,57.4,48.8,30.17,SSW,195,0.0,0.0,73,0.00,,,0.00,Wunderground v.1.15,2013-04-28 08:26:00,
2013-04-28 04:27:00,57.4,48.4,30.17,SSW,195,0.0,0.0,72,0.00,,,0.00,Wunderground v.1.15,2013-04-28 08:27:00,
2013-04-28 04:28:00,57.4,48.4,30.17,SSW,195,0.0,0.0,72,0.00,,,0.00,Wunderground v.1.15,2013-04-28 08:28:00,
2013-04-28 04:31:00,57.4,48.4,30.17,SSW,195,0.0,0.0,72,0.00,,,0.00,Wunderground v.1.15,2013-04-28 08:31:00,
2013-04-28 04:32:00,57.4,48.4,30.16,SSW,195,0.0,1.0,72,0.00,,,0.00,Wunderground v.1.15,2013-04-28 08:32:00,
2013-04-28 04:33:00,57.4,48.4,30.16,SSW,195,0.0,1.0,72,0.00,,,0.00,Wunderground v.1.15,2013-04-28 08:33:00,
2013-04-28 04:34:00,57.4,48.4,30.16,SSW,195,0.0,1.0,72,0.00,,,0.00,Wunderground v.1.15,2013-04-28 08:34:00,
2013-04-28 04:36:00,57.4,48.4,30.16,SSW,195,0.0,1.0,72,0.00,,,0.00,Wunderground v.1.15,2013-04-28 08:36:00,
2013-04-28 04:37:00,57.4,48.4,30.16,SSW,195,0.0,1.0,72,0.00,,,0.00,Wunderground v.1.15,2013-04-28 08:37:00,
2013-04-28 04:38:00,57.4,48.1,30.16,SSW,195,0.0,1.0,71,0.00,,,0.00,Wunderground v.1.15,2013-04-28 08:38:00,
2013-04-28 04:39:00,57.4,48.1,30.16,SSW,195,0.0,1.0,71,0.00,,,0.00,Wunderground v.1.15,2013-04-28 08:39:00,
2013-04-28 04:41:00,57.3,48.0,30.16,SSW,195,0.0,0.0,71,0.00,,,0.00,Wunderground v.1.15,2013-04-28 08:41:00,
2013-04-28 04:42:00,57.3,48.0,30.16,SSW,195,0.0,0.0,71,0.00,,,0.00,Wunderground v.1.15,2013-04-28 08:42:00,
2013-04-28 04:43:00,57.3,47.6,30.16,SSW,195,0.0,0.0,70,0.00,,,0.00,Wunderground v.1.15,2013-04-28 08:43:00,
2013-04-28 04:44:00,57.3,47.6,30.16,SSW,195,0.0,0.0,70,0.00,,,0.00,Wunderground v.1.15,2013-04-28 08:44:00,
2013-04-28 04:47:00,57.3,48.0,30.17,SSW,195,0.0,0.0,71,0.00,,,0.00,Wunderground v.1.15,2013-04-28 08:47:00,
2013-04-28 04:48:00,57.3,48.0,30.17,SSW,195,0.0,0.0,71,0.00,,,0.00,Wunderground v.1.15,2013-04-28 08:48:00,
2013-04-28 04:49:00,57.3,47.6,30.17,SSW,195,0.0,0.0,70,0.00,,,0.00,Wunderground v.1.15,2013-04-28 08:49:00,
2013-04-28 04:50:00,57.3,47.6,30.17,SSW,195,0.0,0.0,70,0.00,,,0.00,Wunderground v.1.15,2013-04-28 08:50:00,
2013-04-28 04:52:00,57.3,47.6,30.17,SSW,195,0.0,0.0,70,0.00,,,0.00,Wunderground v.1.15,2013-04-28 08:52:00,
2013-04-28 04:54:00,57.3,47.6,30.17,SSW,195,0.0,0.0,70,0.00,,,0.00,Wunderground v.1.15,2013-04-28 08:54:00,
2013-04-28 04:55:00,57.2,47.1,30.17,SSW,195,0.0,0.0,69,0.00,,,0.00,Wunderground v.1.15,2013-04-28 08:55:00,
2013-04-28 04:57:00,57.2,47.1,30.17,SSW,195,0.0,0.0,69,0.00,,,0.00,Wunderground v.1.15,2013-04-28 08:57:00,
2013-04-28 04:59:00,57.2,47.1,30.17,SSW,195,0.0,0.0,69,0.00,,,0.00,Wunderground v.1.15,2013-04-28 08:59:00,
2013-04-28 05:01:00,57.2,46.7,30.17,SSW,195,0.0,0.0,68,0.00,,,0.00,Wunderground v.1.15,2013-04-28 09:01:00,
2013-04-28 05:02:00,57.2,46.7,30.17,SSW,195,0.0,0.0,68,0.00,,,0.00,Wunderground v.1.15,2013-04-28 09:02:00,
2013-04-28 05:04:00,57.2,46.7,30.17,SSW,195,0.0,0.0,68,0.00,,,0.00,Wunderground v.1.15,2013-04-28 09:04:00,
2013-04-28 05:05:00,57.2,46.7,30.17,SSW,195,0.0,0.0,68,0.00,,,0.00,Wunderground v.1.15,2013-04-28 09:05:00,
2013-04-28 05:06:00,57.2,46.3,30.17,SSW,195,0.0,0.0,67,0.00,,,0.00,Wunderground v.1.15,2013-04-28 09:06:00,
2013-04-28 05:07:00,57.2,46.3,30.17,SSW,195,0.0,0.0,67,0.00,,,0.00,Wunderground v.1.15,2013-04-28 09:07:00,
2013-04-28 05:09:00,57.1,46.2,30.17,SSW,195,0.0,0.0,67,0.00,,,0.00,Wunderground v.1.15,2013-04-28 09:09:00,
2013-04-28 05:10:00,57.1,46.2,30.17,SSW,195,0.0,0.0,67,0.00,,,0.00,Wunderground v.1.15,2013-04-28 09:10:00,
2013-04-28 05:11:00,57.1,46.2,30.17,SSW,195,0.0,0.0,67,0.00,,,0.00,Wunderground v.1.15,2013-04-28 09:11:00,
2013-04-28 05:12:00,57.1,45.8,30.17,SSW,195,0.0,0.0,66,0.00,,,0.00,Wunderground v.1.15,2013-04-28 09:12:00,
2013-04-28 05:13:00,57.1,45.8,30.17,SSW,195,0.0,0.0,66,0.00,,,0.00,Wunderground v.1.15,2013-04-28 09:13:00,
2013-04-28 05:14:00,57.1,45.8,30.17,SSW,196,0.0,0.0,66,0.00,,,0.00,Wunderground v.1.15,2013-04-28 09:14:00,
2013-04-28 05:15:00,57.1,46.2,30.17,SSW,195,0.0,0.0,67,0.00,,,0.00,Wunderground v.1.15,2013-04-28 09:15:00,
2013-04-28 05:16:00,57.1,46.2,30.17,SSW,195,0.0,0.0,67,0.00,,,0.00,Wunderground v.1.15,2013-04-28 09:16:00,
2013-04-28 05:17:00,57.1,45.8,30.17,SSW,195,0.0,0.0,66,0.00,,,0.00,Wunderground v.1.15,2013-04-28 09:17:00,
2013-04-28 05:18:00,57.1,45.8,30.17,SSW,195,0.0,0.0,66,0.00,,,0.00,Wunderground v.1.15,2013-04-28 09:18:00,
2013-04-28 05:19:00,57.1,45.8,30.17,SSW,195,0.0,0.0,66,0.00,,,0.00,Wunderground v.1.15,2013-04-28 09:19:00,
2013-04-28 05:20:00,57.1,45.4,30.17,SSW,195,0.0,0.0,65,0.00,,,0.00,Wunderground v.1.15,2013-04-28 09:20:00,
2013-04-28 05:21:00,57.1,45.4,30.17,SSW,195,0.0,0.0,65,0.00,,,0.00,Wunderground v.1.15,2013-04-28 09:21:00,
2013-04-28 05:22:00,57.1,45.4,30.17,SSW,195,0.0,1.0,65,0.00,,,0.00,Wunderground v.1.15,2013-04-28 09:22:00,
2013-04-28 05:23:00,57.1,45.0,30.17,SSW,195,0.0,1.0,64,0.00,,,0.00,Wunderground v.1.15,2013-04-28 09:23:00,
2013-04-28 05:24:00,57.1,45.0,30.17,SSW,195,0.0,1.0,64,0.00,,,0.00,Wunderground v.1.15,2013-04-28 09:24:00,
2013-04-28 05:25:00,57.1,45.4,30.17,SSW,195,0.0,1.0,65,0.00,,,0.00,Wunderground v.1.15,2013-04-28 09:25:00,
2013-04-28 05:26:00,57.0,45.3,30.17,SSW,195,0.0,1.0,65,0.00,,,0.00,Wunderground v.1.15,2013-04-28 09:26:00,
2013-04-28 05:27:00,57.1,45.0,30.17,SSW,195,0.0,1.0,64,0.00,,,0.00,Wunderground v.1.15,2013-04-28 09:27:00,
2013-04-28 05:28:00,57.1,45.0,30.17,SSW,195,0.0,1.0,64,0.00,,,0.00,Wunderground v.1.15,2013-04-28 09:28:00,
2013-04-28 05:30:00,57.1,45.4,30.17,SSW,195,0.0,1.0,65,0.00,,,0.00,Wunderground v.1.15,2013-04-28 09:30:00,
2013-04-28 05:32:00,57.1,45.0,30.17,SSW,195,0.0,0.0,64,0.00,,,0.00,Wunderground v.1.15,2013-04-28 09:32:00,
2013-04-28 05:33:00,57.1,45.0,30.17,SSW,195,0.0,0.0,64,0.00,,,0.00,Wunderground v.1.15,2013-04-28 09:33:00,
2013-04-28 05:35:00,57.1,44.6,30.17,SSW,195,0.0,0.0,63,0.00,,,0.00,Wunderground v.1.15,2013-04-28 09:35:00,
2013-04-28 05:36:00,57.1,44.6,30.17,SSW,195,0.0,0.0,63,0.00,,,0.00,Wunderground v.1.15,2013-04-28 09:36:00,
2013-04-28 05:37:00,57.1,44.6,30.17,SSW,195,0.0,0.0,63,0.00,,,0.00,Wunderground v.1.15,2013-04-28 09:37:00,
2013-04-28 05:38:00,57.1,44.6,30.17,SSW,195,0.0,0.0,63,0.00,,,0.00,Wunderground v.1.15,2013-04-28 09:38:00,
2013-04-28 05:40:00,57.1,44.6,30.17,SSW,195,0.0,0.0,63,0.00,,,0.00,Wunderground v.1.15,2013-04-28 09:40:00,
2013-04-28 05:41:00,57.1,44.6,30.17,SSW,195,0.0,0.0,63,0.00,,,0.00,Wunderground v.1.15,2013-04-28 09:41:00,
2013-04-28 05:42:00,57.1,45.0,30.17,SSW,195,0.0,0.0,64,0.00,,,0.00,Wunderground v.1.15,2013-04-28 09:42:00,
2013-04-28 05:43:00,57.1,45.0,30.17,SSW,195,0.0,0.0,64,0.00,,,0.00,Wunderground v.1.15,2013-04-28 09:43:00,
2013-04-28 05:45:00,57.0,44.9,30.17,SSW,195,0.0,0.0,64,0.00,,,0.00,Wunderground v.1.15,2013-04-28 09:45:00,
2013-04-28 05:46:00,57.0,44.9,30.17,SSW,195,0.0,0.0,64,0.00,,,0.00,Wunderground v.1.15,2013-04-28 09:46:00,
2013-04-28 05:47:00,57.0,44.5,30.17,SSW,195,0.0,0.0,63,0.00,,,0.00,Wunderground v.1.15,2013-04-28 09:47:00,
2013-04-28 05:48:00,57.0,44.5,30.17,SSW,195,0.0,0.0,63,0.00,,,0.00,Wunderground v.1.15,2013-04-28 09:48:00,
2013-04-28 05:50:00,56.9,44.4,30.17,SSW,195,0.0,0.0,63,0.00,,,0.00,Wunderground v.1.15,2013-04-28 09:50:00,
2013-04-28 05:51:00,56.9,44.4,30.17,SSW,195,0.0,0.0,63,0.00,,,0.00,Wunderground v.1.15,2013-04-28 09:51:00,
2013-04-28 05:52:00,56.9,44.4,30.17,SSW,195,0.0,0.0,63,0.00,,,0.00,Wunderground v.1.15,2013-04-28 09:52:00,
2013-04-28 05:53:00,56.9,44.4,30.17,SSW,195,0.0,0.0,63,0.00,,,0.00,Wunderground v.1.15,2013-04-28 09:53:00,
2013-04-28 05:54:00,56.9,44.4,30.17,SSW,195,0.0,0.0,63,0.00,,,0.00,Wunderground v.1.15,2013-04-28 09:54:00,
2013-04-28 05:56:00,56.9,44.4,30.17,SSW,195,0.0,0.0,63,0.00,,,0.00,Wunderground v.1.15,2013-04-28 09:56:00,
2013-04-28 05:58:00,56.8,44.3,30.17,SSW,195,0.0,0.0,63,0.00,,,0.00,Wunderground v.1.15,2013-04-28 09:58:00,
2013-04-28 05:59:00,56.8,44.3,30.17,SSW,195,0.0,0.0,63,0.00,,,0.00,Wunderground v.1.15,2013-04-28 09:59:00,
2013-04-28 06:01:00,56.8,44.3,30.17,SSW,195,0.0,0.0,63,0.00,,,0.00,Wunderground v.1.15,2013-04-28 10:01:00,
2013-04-28 06:02:00,56.7,44.2,30.17,SSW,195,0.0,0.0,63,0.00,,,0.00,Wunderground v.1.15,2013-04-28 10:02:00,
2013-04-28 06:03:00,56.7,44.2,30.17,SSW,195,0.0,0.0,63,0.00,,,0.00,Wunderground v.1.15,2013-04-28 10:03:00,
2013-04-28 06:04:00,56.7,44.2,30.17,SSW,195,0.0,0.0,63,0.00,,,0.00,Wunderground v.1.15,2013-04-28 10:04:00,
2013-04-28 06:06:00,56.7,44.2,30.17,SSW,195,0.0,0.0,63,0.00,,,0.00,Wunderground v.1.15,2013-04-28 10:06:00,
2013-04-28 06:07:00,56.7,44.2,30.17,SSW,195,0.0,0.0,63,0.00,,,0.00,Wunderground v.1.15,2013-04-28 10:07:00,
2013-04-28 06:08:00,56.7,44.7,30.17,SSW,195,0.0,0.0,64,0.00,,,0.00,Wunderground v.1.15,2013-04-28 10:08:00,
2013-04-28 06:09:00,56.7,45.1,30.17,SSW,195,0.0,0.0,65,0.00,,,0.00,Wunderground v.1.15,2013-04-28 10:09:00,
2013-04-28 06:12:00,56.6,44.6,30.17,SSW,195,0.0,0.0,64,0.00,,,0.00,Wunderground v.1.15,2013-04-28 10:12:00,
2013-04-28 06:13:00,56.6,45.0,30.17,SSW,195,0.0,0.0,65,0.00,,,0.00,Wunderground v.1.15,2013-04-28 10:13:00,
2013-04-28 06:14:00,56.6,45.0,30.17,SSW,195,0.0,0.0,65,0.00,,,0.00,Wunderground v.1.15,2013-04-28 10:14:00,
2013-04-28 06:17:00,56.5,44.5,30.17,SSW,195,0.0,0.0,64,0.00,,,0.00,Wunderground v.1.15,2013-04-28 10:17:00,
2013-04-28 06:18:00,56.5,44.5,30.17,SSW,195,0.0,0.0,64,0.00,,,0.00,Wunderground v.1.15,2013-04-28 10:18:00,
2013-04-28 06:19:00,56.4,44.4,30.18,SSW,195,0.0,0.0,64,0.00,,,0.00,Wunderground v.1.15,2013-04-28 10:19:00,
2013-04-28 06:20:00,56.4,44.4,30.17,SSW,195,0.0,0.0,64,0.00,,,0.00,Wunderground v.1.15,2013-04-28 10:20:00,
2013-04-28 06:22:00,56.3,44.7,30.17,SSW,195,0.0,0.0,65,0.00,,,0.00,Wunderground v.1.15,2013-04-28 10:22:00,
2013-04-28 06:23:00,56.3,44.7,30.17,SSW,195,0.0,0.0,65,0.00,,,0.00,Wunderground v.1.15,2013-04-28 10:23:00,
2013-04-28 06:24:00,56.3,44.7,30.17,SSW,195,0.0,0.0,65,0.00,,,0.00,Wunderground v.1.15,2013-04-28 10:24:00,
2013-04-28 06:25:00,56.3,44.7,30.17,SSW,195,0.0,0.0,65,0.00,,,0.00,Wunderground v.1.15,2013-04-28 10:25:00,
2013-04-28 06:27:00,56.2,44.6,30.17,SSW,195,0.0,0.0,65,0.00,,,0.00,Wunderground v.1.15,2013-04-28 10:27:00,
2013-04-28 06:28:00,56.2,44.6,30.17,SSW,195,0.0,0.0,65,0.00,,,0.00,Wunderground v.1.15,2013-04-28 10:28:00,
2013-04-28 06:29:00,56.2,44.6,30.17,SSW,195,0.0,0.0,65,0.00,,,0.00,Wunderground v.1.15,2013-04-28 10:29:00,
2013-04-28 06:30:00,56.2,44.6,30.17,SSW,195,0.0,0.0,65,0.00,,,0.00,Wunderground v.1.15,2013-04-28 10:30:00,
2013-04-28 06:32:00,56.1,44.5,30.18,SSW,195,0.0,0.0,65,0.00,,,0.00,Wunderground v.1.15,2013-04-28 10:32:00,
2013-04-28 06:33:00,56.1,44.5,30.18,SSW,195,0.0,0.0,65,0.00,,,0.00,Wunderground v.1.15,2013-04-28 10:33:00,
2013-04-28 06:34:00,56.1,44.5,30.18,SSW,195,0.0,0.0,65,0.00,,,0.00,Wunderground v.1.15,2013-04-28 10:34:00,
2013-04-28 06:35:00,56.1,44.5,30.18,SSW,195,0.0,0.0,65,0.00,,,0.00,Wunderground v.1.15,2013-04-28 10:35:00,
2013-04-28 06:38:00,56.1,44.5,30.18,SSW,195,0.0,0.0,65,0.00,,,0.00,Wunderground v.1.15,2013-04-28 10:38:00,
2013-04-28 06:39:00,56.1,44.5,30.18,SSW,195,0.0,0.0,65,0.00,,,0.00,Wunderground v.1.15,2013-04-28 10:39:00,
2013-04-28 06:40:00,56.1,44.5,30.18,SSW,195,0.0,0.0,65,0.00,,,0.00,Wunderground v.1.15,2013-04-28 10:40:00,
2013-04-28 06:43:00,56.1,44.5,30.18,SSW,195,0.0,0.0,65,0.00,,,0.00,Wunderground v.1.15,2013-04-28 10:43:00,
2013-04-28 06:44:00,56.1,44.9,30.18,SSW,195,0.0,0.0,66,0.00,,,0.00,Wunderground v.1.15,2013-04-28 10:44:00,
2013-04-28 06:46:00,56.2,44.6,30.18,SSW,195,0.0,0.0,65,0.00,,,0.00,Wunderground v.1.15,2013-04-28 10:46:00,
2013-04-28 06:48:00,56.2,44.6,30.18,SSW,195,0.0,0.0,65,0.00,,,0.00,Wunderground v.1.15,2013-04-28 10:48:00,
2013-04-28 06:49:00,56.1,44.5,30.18,SSW,195,0.0,0.0,65,0.00,,,0.00,Wunderground v.1.15,2013-04-28 10:49:00,
2013-04-28 06:50:00,56.1,44.5,30.18,SSW,195,0.0,0.0,65,0.00,,,0.00,Wunderground v.1.15,2013-04-28 10:50:00,
2013-04-28 06:51:00,56.1,44.5,30.18,SSW,195,0.0,0.0,65,0.00,,,0.00,Wunderground v.1.15,2013-04-28 10:51:00,
2013-04-28 06:53:00,56.1,44.9,30.18,SSW,195,0.0,0.0,66,0.00,,,0.00,Wunderground v.1.15,2013-04-28 10:53:00,
2013-04-28 06:54:00,56.1,44.9,30.18,SSW,195,0.0,0.0,66,0.00,,,0.00,Wunderground v.1.15,2013-04-28 10:54:00,
2013-04-28 06:55:00,56.1,44.9,30.18,SSW,195,0.0,0.0,66,0.00,,,0.00,Wunderground v.1.15,2013-04-28 10:55:00,
2013-04-28 06:56:00,56.1,44.9,30.18,SSW,195,0.0,0.0,66,0.00,,,0.00,Wunderground v.1.15,2013-04-28 10:56:00,
2013-04-28 06:58:00,56.1,44.5,30.18,SSW,195,0.0,0.0,65,0.00,,,0.00,Wunderground v.1.15,2013-04-28 10:58:00,
2013-04-28 06:59:00,56.1,44.5,30.18,SSW,195,0.0,0.0,65,0.00,,,0.00,Wunderground v.1.15,2013-04-28 10:59:00,
2013-04-28 07:00:00,56.1,44.9,30.18,SSW,195,0.0,0.0,66,0.00,,,0.00,Wunderground v.1.15,2013-04-28 11:00:00,
2013-04-28 07:01:00,56.1,44.9,30.18,SSW,195,0.0,0.0,66,0.00,,,0.00,Wunderground v.1.15,2013-04-28 11:01:00,
2013-04-28 07:03:00,56.1,45.3,30.18,SSW,195,0.0,0.0,67,0.00,,,0.00,Wunderground v.1.15,2013-04-28 11:03:00,
2013-04-28 07:04:00,56.1,45.3,30.18,SSW,195,0.0,0.0,67,0.00,,,0.00,Wunderground v.1.15,2013-04-28 11:04:00,
2013-04-28 07:05:00,56.1,45.3,30.18,SSW,195,0.0,0.0,67,0.00,,,0.00,Wunderground v.1.15,2013-04-28 11:05:00,
2013-04-28 07:06:00,56.0,45.2,30.18,SSW,195,0.0,0.0,67,0.00,,,0.00,Wunderground v.1.15,2013-04-28 11:06:00,
2013-04-28 07:09:00,56.0,45.6,30.18,SSW,195,0.0,1.0,68,0.00,,,0.00,Wunderground v.1.15,2013-04-28 11:09:00,
2013-04-28 07:10:00,56.0,45.6,30.18,SSE,158,1.0,1.0,68,0.00,,,0.00,Wunderground v.1.15,2013-04-28 11:10:00,
2013-04-28 07:11:00,55.9,45.1,30.18,SSE,158,0.0,1.0,67,0.00,,,0.00,Wunderground v.1.15,2013-04-28 11:11:00,
2013-04-28 07:14:00,55.9,44.7,30.18,SSE,156,1.0,1.0,66,0.00,,,0.00,Wunderground v.1.15,2013-04-28 11:14:00,
2013-04-28 07:15:00,55.9,44.7,30.18,SSE,156,0.0,1.0,66,0.00,,,0.00,Wunderground v.1.15,2013-04-28 11:15:00,
2013-04-28 07:17:00,55.9,44.7,30.18,SE,142,1.0,1.0,66,0.00,,,0.00,Wunderground v.1.15,2013-04-28 11:17:00,
2013-04-28 07:19:00,55.9,44.7,30.18,SE,143,0.0,1.0,66,0.00,,,0.00,Wunderground v.1.15,2013-04-28 11:19:00,
2013-04-28 07:20:00,55.9,44.7,30.18,SE,142,1.0,1.0,66,0.00,,,0.00,Wunderground v.1.15,2013-04-28 11:20:00,
2013-04-28 07:21:00,56.0,44.8,30.18,SE,142,1.0,1.0,66,0.00,,,0.00,Wunderground v.1.15,2013-04-28 11:21:00,
2013-04-28 07:22:00,56.0,44.8,30.18,SE,142,1.0,1.0,66,0.00,,,0.00,Wunderground v.1.15,2013-04-28 11:22:00,
2013-04-28 07:24:00,56.0,44.8,30.18,SE,142,1.0,1.0,66,0.00,,,0.00,Wunderground v.1.15,2013-04-28 11:24:00,
2013-04-28 07:25:00,56.0,44.8,30.18,SE,142,0.0,1.0,66,0.00,,,0.00,Wunderground v.1.15,2013-04-28 11:25:00,
2013-04-28 07:26:00,56.0,44.8,30.18,SE,142,1.0,1.0,66,0.00,,,0.00,Wunderground v.1.15,2013-04-28 11:26:00,
2013-04-28 07:27:00,56.0,44.8,30.18,SE,141,1.0,1.0,66,0.00,,,0.00,Wunderground v.1.15,2013-04-28 11:27:00,
2013-04-28 07:30:00,56.0,44.8,30.18,SE,141,1.0,1.0,66,0.00,,,0.00,Wunderground v.1.15,2013-04-28 11:30:00,
2013-04-28 07:31:00,56.0,44.8,30.18,SE,141,0.0,1.0,66,0.00,,,0.00,Wunderground v.1.15,2013-04-28 11:31:00,
2013-04-28 07:33:00,56.1,44.9,30.17,SE,141,0.0,1.0,66,0.00,,,0.00,Wunderground v.1.15,2013-04-28 11:33:00,
2013-04-28 07:35:00,56.0,44.8,30.18,East,98,0.0,2.0,66,0.00,,,0.00,Wunderground v.1.15,2013-04-28 11:35:00,
2013-04-28 07:36:00,56.0,44.8,30.18,East,99,0.0,2.0,66,0.00,,,0.00,Wunderground v.1.15,2013-04-28 11:36:00,
2013-04-28 07:37:00,56.0,45.2,30.18,East,98,0.0,2.0,67,0.00,,,0.00,Wunderground v.1.15,2013-04-28 11:37:00,
2013-04-28 07:38:00,56.0,45.2,30.18,East,98,0.0,2.0,67,0.00,,,0.00,Wunderground v.1.15,2013-04-28 11:38:00,
2013-04-28 07:40:00,56.0,45.2,30.19,East,98,0.0,0.0,67,0.00,,,0.00,Wunderground v.1.15,2013-04-28 11:40:00,
2013-04-28 07:41:00,56.1,45.3,30.19,East,99,0.0,0.0,67,0.00,,,0.00,Wunderground v.1.15,2013-04-28 11:41:00,
2013-04-28 07:42:00,56.1,45.3,30.19,East,98,0.0,0.0,67,0.00,,,0.00,Wunderground v.1.15,2013-04-28 11:42:00,
2013-04-28 07:43:00,56.1,45.3,30.19,East,98,0.0,0.0,67,0.00,,,0.00,Wunderground v.1.15,2013-04-28 11:43:00,
2013-04-28 07:45:00,56.1,45.7,30.19,East,99,0.0,0.0,68,0.00,,,0.00,Wunderground v.1.15,2013-04-28 11:45:00,
2013-04-28 07:46:00,56.0,45.6,30.19,East,99,0.0,0.0,68,0.00,,,0.00,Wunderground v.1.15,2013-04-28 11:46:00,
2013-04-28 07:47:00,56.1,45.7,30.19,East,98,0.0,0.0,68,0.00,,,0.00,Wunderground v.1.15,2013-04-28 11:47:00,
2013-04-28 07:48:00,56.1,45.7,30.19,East,98,0.0,0.0,68,0.00,,,0.00,Wunderground v.1.15,2013-04-28 11:48:00,
2013-04-28 07:50:00,56.0,45.6,30.19,East,98,0.0,0.0,68,0.00,,,0.00,Wunderground v.1.15,2013-04-28 11:50:00,
2013-04-28 07:51:00,56.0,45.6,30.19,East,98,0.0,0.0,68,0.00,,,0.00,Wunderground v.1.15,2013-04-28 11:51:00,
2013-04-28 07:52:00,56.0,45.6,30.20,East,98,0.0,0.0,68,0.00,,,0.00,Wunderground v.1.15,2013-04-28 11:52:00,
2013-04-28 07:54:00,56.0,46.0,30.20,East,98,0.0,0.0,69,0.00,,,0.00,Wunderground v.1.15,2013-04-28 11:54:00,
2013-04-28 07:55:00,56.0,46.4,30.20,East,98,0.0,0.0,70,0.00,,,0.00,Wunderground v.1.15,2013-04-28 11:55:00,
2013-04-28 07:56:00,56.0,46.4,30.20,East,98,0.0,0.0,70,0.00,,,0.00,Wunderground v.1.15,2013-04-28 11:56:00,
2013-04-28 07:57:00,55.9,46.3,30.20,East,99,0.0,0.0,70,0.00,,,0.00,Wunderground v.1.15,2013-04-28 11:57:00,
2013-04-28 07:59:00,55.9,46.3,30.20,East,98,0.0,0.0,70,0.00,,,0.00,Wunderground v.1.15,2013-04-28 11:59:00,
2013-04-28 08:01:00,55.9,46.6,30.20,East,98,0.0,0.0,71,0.00,,,0.00,Wunderground v.1.15,2013-04-28 12:01:00,
2013-04-28 08:03:00,55.9,46.6,30.20,East,98,0.0,0.0,71,0.00,,,0.00,Wunderground v.1.15,2013-04-28 12:03:00,
2013-04-28 08:04:00,55.8,46.9,30.20,East,98,0.0,0.0,72,0.00,,,0.00,Wunderground v.1.15,2013-04-28 12:04:00,
2013-04-28 08:06:00,55.8,46.9,30.20,East,98,0.0,0.0,72,0.00,,,0.00,Wunderground v.1.15,2013-04-28 12:06:00,
2013-04-28 08:07:00,55.8,47.3,30.20,East,99,0.0,1.0,73,0.00,,,0.00,Wunderground v.1.15,2013-04-28 12:07:00,
2013-04-28 08:08:00,55.7,47.2,30.20,East,98,0.0,1.0,73,0.00,,,0.00,Wunderground v.1.15,2013-04-28 12:08:00,
2013-04-28 08:09:00,55.6,47.1,30.20,East,98,0.0,1.0,73,0.00,,,0.00,Wunderground v.1.15,2013-04-28 12:09:00,
2013-04-28 08:11:00,55.5,47.3,30.20,East,98,0.0,0.0,74,0.00,,,0.00,Wunderground v.1.15,2013-04-28 12:11:00,
2013-04-28 08:12:00,55.5,47.3,30.20,East,98,0.0,0.0,74,0.00,,,0.00,Wunderground v.1.15,2013-04-28 12:12:00,
2013-04-28 08:13:00,55.4,46.9,30.20,East,98,0.0,0.0,73,0.00,,,0.00,Wunderground v.1.15,2013-04-28 12:13:00,
2013-04-28 08:14:00,55.3,47.2,30.20,East,98,0.0,0.0,74,0.00,,,0.00,Wunderground v.1.15,2013-04-28 12:14:00,
2013-04-28 08:16:00,55.3,47.2,30.20,East,99,0.0,0.0,74,0.00,,,0.00,Wunderground v.1.15,2013-04-28 12:16:00,
2013-04-28 08:17:00,55.3,47.2,30.20,East,98,0.0,0.0,74,0.00,,,0.00,Wunderground v.1.15,2013-04-28 12:17:00,
2013-04-28 08:18:00,55.3,47.2,30.20,East,98,0.0,0.0,74,0.00,,,0.00,Wunderground v.1.15,2013-04-28 12:18:00,
2013-04-28 08:19:00,55.3,47.2,30.20,East,99,0.0,0.0,74,0.00,,,0.00,Wunderground v.1.15,2013-04-28 12:19:00,
2013-04-28 08:21:00,55.3,47.5,30.20,East,98,0.0,0.0,75,0.00,,,0.00,Wunderground v.1.15,2013-04-28 12:21:00,
2013-04-28 08:22:00,55.3,47.5,30.20,East,99,0.0,0.0,75,0.00,,,0.00,Wunderground v.1.15,2013-04-28 12:22:00,
2013-04-28 08:23:00,55.3,47.5,30.20,East,99,0.0,0.0,75,0.00,,,0.00,Wunderground v.1.15,2013-04-28 12:23:00,
2013-04-28 08:25:00,55.3,47.5,30.19,East,98,0.0,0.0,75,0.00,,,0.00,Wunderground v.1.15,2013-04-28 12:25:00,
2013-04-28 08:26:00,55.3,47.5,30.19,East,98,0.0,0.0,75,0.00,,,0.00,Wunderground v.1.15,2013-04-28 12:26:00,
2013-04-28 08:27:00,55.3,47.2,30.19,East,98,0.0,0.0,74,0.00,,,0.00,Wunderground v.1.15,2013-04-28 12:27:00,
2013-04-28 08:29:00,55.3,47.5,30.20,East,98,0.0,0.0,75,0.00,,,0.00,Wunderground v.1.15,2013-04-28 12:29:00,
2013-04-28 08:30:00,55.4,47.6,30.19,East,98,0.0,0.0,75,0.00,,,0.00,Wunderground v.1.15,2013-04-28 12:30:00,
2013-04-28 08:31:00,55.4,47.6,30.19,East,99,0.0,0.0,75,0.00,,,0.00,Wunderground v.1.15,2013-04-28 12:31:00,
2013-04-28 08:33:00,55.4,47.2,30.20,East,98,0.0,0.0,74,0.00,,,0.00,Wunderground v.1.15,2013-04-28 12:33:00,
2013-04-28 08:34:00,55.4,47.6,30.20,East,98,0.0,0.0,75,0.00,,,0.00,Wunderground v.1.15,2013-04-28 12:34:00,
2013-04-28 08:35:00,55.5,47.3,30.20,East,98,0.0,0.0,74,0.00,,,0.00,Wunderground v.1.15,2013-04-28 12:35:00,
2013-04-28 08:36:00,55.5,47.3,30.20,East,98,0.0,0.0,74,0.00,,,0.00,Wunderground v.1.15,2013-04-28 12:36:00,
2013-04-28 08:38:00,55.5,47.7,30.20,East,98,0.0,0.0,75,0.00,,,0.00,Wunderground v.1.15,2013-04-28 12:38:00,
2013-04-28 08:39:00,55.6,47.4,30.20,East,98,0.0,0.0,74,0.00,,,0.00,Wunderground v.1.15,2013-04-28 12:39:00,
2013-04-28 08:41:00,55.6,47.1,30.19,East,98,1.0,1.0,73,0.00,,,0.00,Wunderground v.1.15,2013-04-28 12:41:00,
2013-04-28 08:43:00,55.7,47.5,30.19,East,99,0.0,1.0,74,0.00,,,0.00,Wunderground v.1.15,2013-04-28 12:43:00,
2013-04-28 08:44:00,55.7,47.5,30.19,East,98,0.0,1.0,74,0.00,,,0.00,Wunderground v.1.15,2013-04-28 12:44:00,
2013-04-28 08:46:00,55.7,47.5,30.19,East,98,0.0,1.0,74,0.00,,,0.00,Wunderground v.1.15,2013-04-28 12:46:00,
2013-04-28 08:48:00,55.8,47.6,30.19,East,98,0.0,1.0,74,0.00,,,0.00,Wunderground v.1.15,2013-04-28 12:48:00,
2013-04-28 08:49:00,55.8,47.6,30.19,East,99,0.0,1.0,74,0.00,,,0.00,Wunderground v.1.15,2013-04-28 12:49:00,
2013-04-28 08:50:00,55.8,47.3,30.19,East,98,0.0,1.0,73,0.00,,,0.00,Wunderground v.1.15,2013-04-28 12:50:00,
2013-04-28 08:51:00,55.8,47.6,30.19,East,98,0.0,0.0,74,0.00,,,0.00,Wunderground v.1.15,2013-04-28 12:51:00,
2013-04-28 08:52:00,55.8,47.6,30.19,East,99,0.0,0.0,74,0.00,,,0.00,Wunderground v.1.15,2013-04-28 12:52:00,
2013-04-28 08:54:00,55.8,47.3,30.19,East,99,0.0,1.0,73,0.00,,,0.00,Wunderground v.1.15,2013-04-28 12:54:00,
2013-04-28 08:55:00,55.9,47.4,30.19,East,98,0.0,1.0,73,0.00,,,0.00,Wunderground v.1.15,2013-04-28 12:55:00,
2013-04-28 08:56:00,55.9,47.4,30.19,East,98,0.0,1.0,73,0.00,,,0.00,Wunderground v.1.15,2013-04-28 12:56:00,
2013-04-28 08:57:00,55.9,47.7,30.19,East,99,0.0,1.0,74,0.00,,,0.00,Wunderground v.1.15,2013-04-28 12:57:00,
2013-04-28 08:59:00,55.9,47.7,30.19,East,98,0.0,1.0,74,0.00,,,0.00,Wunderground v.1.15,2013-04-28 12:59:00,
2013-04-28 09:00:00,56.0,47.5,30.19,East,98,0.0,0.0,73,0.00,,,0.00,Wunderground v.1.15,2013-04-28 13:00:00,
2013-04-28 09:01:00,56.0,47.5,30.19,East,98,0.0,0.0,73,0.00,,,0.00,Wunderground v.1.15,2013-04-28 13:01:00,
2013-04-28 09:02:00,56.0,47.8,30.18,East,99,0.0,0.0,74,0.00,,,0.00,Wunderground v.1.15,2013-04-28 13:02:00,
2013-04-28 09:04:00,56.0,47.5,30.18,East,99,1.0,1.0,73,0.00,,,0.00,Wunderground v.1.15,2013-04-28 13:04:00,
2013-04-28 09:05:00,56.0,47.8,30.19,East,98,1.0,1.0,74,0.00,,,0.00,Wunderground v.1.15,2013-04-28 13:05:00,
2013-04-28 09:06:00,56.0,47.5,30.19,East,89,1.0,2.0,73,0.00,,,0.00,Wunderground v.1.15,2013-04-28 13:06:00,
2013-04-28 09:07:00,56.0,46.7,30.18,East,89,1.0,2.0,71,0.00,,,0.00,Wunderground v.1.15,2013-04-28 13:07:00,
2013-04-28 09:09:00,56.1,47.2,30.18,East,91,0.0,2.0,72,0.00,,,0.00,Wunderground v.1.15,2013-04-28 13:09:00,
2013-04-28 09:10:00,56.1,47.2,30.18,East,92,0.0,2.0,72,0.00,,,0.00,Wunderground v.1.15,2013-04-28 13:10:00,
2013-04-28 09:11:00,56.1,46.8,30.18,East,92,0.0,1.0,71,0.00,,,0.00,Wunderground v.1.15,2013-04-28 13:11:00,
2013-04-28 09:12:00,56.2,46.9,30.18,East,91,0.0,1.0,71,0.00,,,0.00,Wunderground v.1.15,2013-04-28 13:12:00,
2013-04-28 09:15:00,56.3,46.6,30.18,East,91,0.0,1.0,70,0.00,,,0.00,Wunderground v.1.15,2013-04-28 13:15:00,
2013-04-28 09:16:00,56.3,46.6,30.18,East,91,0.0,1.0,70,0.00,,,0.00,Wunderground v.1.15,2013-04-28 13:16:00,
2013-04-28 09:17:00,56.3,47.0,30.18,East,91,0.0,1.0,71,0.00,,,0.00,Wunderground v.1.15,2013-04-28 13:17:00,
2013-04-28 09:20:00,56.5,47.2,30.18,East,91,0.0,1.0,71,0.00,,,0.00,Wunderground v.1.15,2013-04-28 13:20:00,
2013-04-28 09:21:00,56.5,46.8,30.18,East,90,0.0,2.0,70,0.00,,,0.00,Wunderground v.1.15,2013-04-28 13:21:00,
2013-04-28 09:22:00,56.5,46.8,30.18,East,91,1.0,2.0,70,0.00,,,0.00,Wunderground v.1.15,2013-04-28 13:22:00,
2013-04-28 09:23:00,56.5,46.8,30.18,East,91,1.0,2.0,70,0.00,,,0.00,Wunderground v.1.15,2013-04-28 13:23:00,
2013-04-28 09:25:00,56.6,46.5,30.18,East,91,1.0,2.0,69,0.00,,,0.00,Wunderground v.1.15,2013-04-28 13:25:00,
2013-04-28 09:26:00,56.7,47.0,30.18,East,90,0.0,2.0,70,0.00,,,0.00,Wunderground v.1.15,2013-04-28 13:26:00,
2013-04-28 09:27:00,56.8,46.7,30.18,East,91,1.0,2.0,69,0.00,,,0.00,Wunderground v.1.15,2013-04-28 13:27:00,
2013-04-28 09:28:00,56.8,46.7,30.18,East,91,1.0,2.0,69,0.00,,,0.00,Wunderground v.1.15,2013-04-28 13:28:00,
2013-04-28 09:30:00,56.9,47.2,30.18,East,91,0.0,1.0,70,0.00,,,0.00,Wunderground v.1.15,2013-04-28 13:30:00,
2013-04-28 09:31:00,56.9,47.2,30.17,East,91,1.0,1.0,70,0.00,,,0.00,Wunderground v.1.15,2013-04-28 13:31:00,
2013-04-28 09:32:00,57.0,46.9,30.17,East,90,0.0,1.0,69,0.00,,,0.00,Wunderground v.1.15,2013-04-28 13:32:00,
2013-04-28 09:33:00,57.1,47.0,30.17,East,91,1.0,1.0,69,0.00,,,0.00,Wunderground v.1.15,2013-04-28 13:33:00,
2013-04-28 09:35:00,57.2,46.7,30.17,ENE,70,1.0,3.0,68,0.00,,,0.00,Wunderground v.1.15,2013-04-28 13:35:00,
2013-04-28 09:36:00,57.2,47.1,30.17,ENE,71,0.0,3.0,69,0.00,,,0.00,Wunderground v.1.15,2013-04-28 13:36:00,
2013-04-28 09:37:00,57.3,47.2,30.17,ENE,72,1.0,3.0,69,0.00,,,0.00,Wunderground v.1.15,2013-04-28 13:37:00,
2013-04-28 09:38:00,57.4,46.9,30.17,ENE,75,1.0,3.0,68,0.00,,,0.00,Wunderground v.1.15,2013-04-28 13:38:00,
2013-04-28 09:40:00,57.6,47.1,30.17,ENE,78,0.0,1.0,68,0.00,,,0.00,Wunderground v.1.15,2013-04-28 13:40:00,
2013-04-28 09:41:00,57.7,47.6,30.17,ENE,78,1.0,1.0,69,0.00,,,0.00,Wunderground v.1.15,2013-04-28 13:41:00,
2013-04-28 09:42:00,57.8,47.3,30.18,ENE,77,0.0,1.0,68,0.00,,,0.00,Wunderground v.1.15,2013-04-28 13:42:00,
2013-04-28 09:43:00,57.9,47.4,30.18,ENE,78,0.0,1.0,68,0.00,,,0.00,Wunderground v.1.15,2013-04-28 13:43:00,
2013-04-28 09:46:00,58.1,47.2,30.18,ENE,78,0.0,1.0,67,0.00,,,0.00,Wunderground v.1.15,2013-04-28 13:46:00,
2013-04-28 09:47:00,58.2,47.3,30.18,ENE,75,1.0,3.0,67,0.00,,,0.00,Wunderground v.1.15,2013-04-28 13:47:00,
2013-04-28 09:48:00,58.3,47.4,30.18,SSE,161,0.0,3.0,67,0.00,,,0.00,Wunderground v.1.15,2013-04-28 13:48:00,
2013-04-28 09:49:00,58.3,47.4,30.18,SSE,161,0.0,3.0,67,0.00,,,0.00,Wunderground v.1.15,2013-04-28 13:49:00,
2013-04-28 09:51:00,58.5,47.6,30.18,ENE,63,0.0,1.0,67,0.00,,,0.00,Wunderground v.1.15,2013-04-28 13:51:00,
2013-04-28 09:52:00,58.6,47.3,30.18,ENE,64,0.0,1.0,66,0.00,,,0.00,Wunderground v.1.15,2013-04-28 13:52:00,
2013-04-28 09:53:00,58.7,47.0,30.18,ESE,103,1.0,2.0,65,0.00,,,0.00,Wunderground v.1.15,2013-04-28 13:53:00,
2013-04-28 09:54:00,58.8,47.1,30.18,ESE,103,1.0,2.0,65,0.00,,,0.00,Wunderground v.1.15,2013-04-28 13:54:00,
2013-04-28 09:56:00,58.9,47.6,30.18,SE,135,0.0,2.0,66,0.00,,,0.00,Wunderground v.1.15,2013-04-28 13:56:00,
2013-04-28 09:57:00,59.0,47.2,30.18,SSE,154,0.0,2.0,65,0.00,,,0.00,Wunderground v.1.15,2013-04-28 13:57:00,
2013-04-28 09:59:00,59.2,47.0,30.17,SSE,150,0.0,2.0,64,0.00,,,0.00,Wunderground v.1.15,2013-04-28 13:59:00,
2013-04-28 10:00:00,59.3,47.1,30.17,ENE,73,2.0,2.0,64,0.00,,,0.00,Wunderground v.1.15,2013-04-28 14:00:00,
2013-04-28 10:01:00,59.4,47.2,30.18,SSE,148,1.0,2.0,64,0.00,,,0.00,Wunderground v.1.15,2013-04-28 14:01:00,
2013-04-28 10:02:00,59.5,47.3,30.17,SSE,148,0.0,2.0,64,0.00,,,0.00,Wunderground v.1.15,2013-04-28 14:02:00,
2013-04-28 10:04:00,59.6,47.0,30.18,SSE,148,0.0,2.0,63,0.00,,,0.00,Wunderground v.1.15,2013-04-28 14:04:00,
2013-04-28 10:05:00,59.7,47.5,30.18,SSE,148,0.0,2.0,64,0.00,,,0.00,Wunderground v.1.15,2013-04-28 14:05:00,
2013-04-28 10:06:00,59.8,47.2,30.18,SSE,148,0.0,2.0,63,0.00,,,0.00,Wunderground v.1.15,2013-04-28 14:06:00,
2013-04-28 10:07:00,59.9,47.3,30.18,SE,143,0.0,2.0,63,0.00,,,0.00,Wunderground v.1.15,2013-04-28 14:07:00,
2013-04-28 10:09:00,60.1,46.6,30.18,SSE,150,0.0,2.0,61,0.00,,,0.00,Wunderground v.1.15,2013-04-28 14:09:00,
2013-04-28 10:10:00,60.1,47.0,30.18,SSE,150,0.0,2.0,62,0.00,,,0.00,Wunderground v.1.15,2013-04-28 14:10:00,
2013-04-28 10:11:00,60.2,47.1,30.18,SE,144,1.0,1.0,62,0.00,,,0.00,Wunderground v.1.15,2013-04-28 14:11:00,
2013-04-28 10:12:00,60.3,47.2,30.18,SE,144,0.0,1.0,62,0.00,,,0.00,Wunderground v.1.15,2013-04-28 14:12:00,
2013-04-28 10:13:00,60.3,47.2,30.18,SE,144,0.0,1.0,62,0.00,,,0.00,Wunderground v.1.15,2013-04-28 14:13:00,
2013-04-28 10:15:00,60.3,46.8,30.18,SSE,150,0.0,1.0,61,0.00,,,0.00,Wunderground v.1.15,2013-04-28 14:15:00,
2013-04-28 10:17:00,60.4,46.9,30.17,SSE,167,0.0,2.0,61,0.00,,,0.00,Wunderground v.1.15,2013-04-28 14:17:00,
2013-04-28 10:18:00,60.5,47.0,30.17,SSE,167,0.0,2.0,61,0.00,,,0.00,Wunderground v.1.15,2013-04-28 14:18:00,
2013-04-28 10:20:00,60.5,47.4,30.17,SSE,167,0.0,2.0,62,0.00,,,0.00,Wunderground v.1.15,2013-04-28 14:20:00,
2013-04-28 10:22:00,60.7,47.6,30.17,South,170,1.0,1.0,62,0.00,,,0.00,Wunderground v.1.15,2013-04-28 14:22:00,
2013-04-28 10:23:00,60.7,47.2,30.17,South,170,1.0,1.0,61,0.00,,,0.00,Wunderground v.1.15,2013-04-28 14:23:00,
2013-04-28 10:25:00,60.7,47.2,30.17,East,100,0.0,1.0,61,0.00,,,0.00,Wunderground v.1.15,2013-04-28 14:25:00,
2013-04-28 10:27:00,60.9,47.4,30.17,SE,134,0.0,1.0,61,0.00,,,0.00,Wunderground v.1.15,2013-04-28 14:27:00,
2013-04-28 10:28:00,60.9,47.8,30.17,NE,47,1.0,2.0,62,0.00,,,0.00,Wunderground v.1.15,2013-04-28 14:28:00,
2013-04-28 10:30:00,61.0,47.9,30.18,SSW,197,0.0,1.0,62,0.00,,,0.00,Wunderground v.1.15,2013-04-28 14:30:00,
2013-04-28 10:33:00,61.0,47.4,30.18,SSW,211,1.0,1.0,61,0.00,,,0.00,Wunderground v.1.15,2013-04-28 14:33:00,
2013-04-28 10:34:00,61.0,47.4,30.18,SSW,211,1.0,1.0,61,0.00,,,0.00,Wunderground v.1.15,2013-04-28 14:34:00,
2013-04-28 10:35:00,61.0,47.4,30.18,SSW,208,0.0,1.0,61,0.00,,,0.00,Wunderground v.1.15,2013-04-28 14:35:00,
2013-04-28 10:36:00,61.0,47.4,30.18,SSW,207,0.0,1.0,61,0.00,,,0.00,Wunderground v.1.15,2013-04-28 14:36:00,
2013-04-28 10:38:00,61.1,47.5,30.18,South,184,0.0,1.0,61,0.00,,,0.00,Wunderground v.1.15,2013-04-28 14:38:00,
2013-04-28 10:39:00,61.1,47.5,30.18,South,183,0.0,1.0,61,0.00,,,0.00,Wunderground v.1.15,2013-04-28 14:39:00,
2013-04-28 10:40:00,61.2,47.6,30.18,South,184,1.0,1.0,61,0.00,,,0.00,Wunderground v.1.15,2013-04-28 14:40:00,
2013-04-28 10:41:00,61.2,47.6,30.18,South,183,0.0,1.0,61,0.00,,,0.00,Wunderground v.1.15,2013-04-28 14:41:00,
2013-04-28 10:43:00,61.2,47.6,30.18,South,184,0.0,1.0,61,0.00,,,0.00,Wunderground v.1.15,2013-04-28 14:43:00,
2013-04-28 10:44:00,61.3,47.7,30.18,South,184,0.0,1.0,61,0.00,,,0.00,Wunderground v.1.15,2013-04-28 14:44:00,
2013-04-28 10:46:00,61.3,47.7,30.18,South,184,0.0,1.0,61,0.00,,,0.00,Wunderground v.1.15,2013-04-28 14:46:00,
2013-04-28 10:48:00,61.4,47.8,30.18,South,184,0.0,1.0,61,0.00,,,0.00,Wunderground v.1.15,2013-04-28 14:48:00,
2013-04-28 10:49:00,61.4,47.8,30.18,South,184,0.0,1.0,61,0.00,,,0.00,Wunderground v.1.15,2013-04-28 14:49:00,
2013-04-28 10:50:00,61.5,47.9,30.18,South,183,0.0,1.0,61,0.00,,,0.00,Wunderground v.1.15,2013-04-28 14:50:00,
2013-04-28 10:51:00,61.5,47.9,30.18,South,184,0.0,0.0,61,0.00,,,0.00,Wunderground v.1.15,2013-04-28 14:51:00,
2013-04-28 10:53:00,61.5,47.9,30.18,South,183,0.0,1.0,61,0.00,,,0.00,Wunderground v.1.15,2013-04-28 14:53:00,
2013-04-28 10:54:00,61.5,48.4,30.18,South,184,0.0,1.0,62,0.00,,,0.00,Wunderground v.1.15,2013-04-28 14:54:00,
2013-04-28 10:55:00,61.5,47.9,30.18,South,180,1.0,1.0,61,0.00,,,0.00,Wunderground v.1.15,2013-04-28 14:55:00,
2013-04-28 10:56:00,61.5,47.9,30.18,South,180,0.0,1.0,61,0.00,,,0.00,Wunderground v.1.15,2013-04-28 14:56:00,
2013-04-28 10:58:00,61.5,48.4,30.18,SSE,164,1.0,1.0,62,0.00,,,0.00,Wunderground v.1.15,2013-04-28 14:58:00,
2013-04-28 10:59:00,61.5,48.4,30.18,SSE,163,0.0,1.0,62,0.00,,,0.00,Wunderground v.1.15,2013-04-28 14:59:00,
2013-04-28 11:00:00,61.5,48.4,30.18,SSE,163,0.0,0.0,62,0.00,,,0.00,Wunderground v.1.15,2013-04-28 15:00:00,
2013-04-28 11:01:00,61.5,47.9,30.18,SSE,163,0.0,0.0,61,0.00,,,0.00,Wunderground v.1.15,2013-04-28 15:01:00,
2013-04-28 11:02:00,61.6,48.0,30.18,ESE,103,1.0,2.0,61,0.00,,,0.00,Wunderground v.1.15,2013-04-28 15:02:00,
2013-04-28 11:04:00,61.4,47.8,30.18,ESE,108,1.0,2.0,61,0.00,,,0.00,Wunderground v.1.15,2013-04-28 15:04:00,
2013-04-28 11:05:00,61.4,48.3,30.18,ESE,108,0.0,2.0,62,0.00,,,0.00,Wunderground v.1.15,2013-04-28 15:05:00,
2013-04-28 11:06:00,61.3,48.2,30.18,ESE,108,0.0,2.0,62,0.00,,,0.00,Wunderground v.1.15,2013-04-28 15:06:00,
2013-04-28 11:07:00,61.3,47.7,30.18,ESE,108,0.0,2.0,61,0.00,,,0.00,Wunderground v.1.15,2013-04-28 15:07:00,
2013-04-28 11:10:00,61.3,48.2,30.18,ESE,108,0.0,2.0,62,0.00,,,0.00,Wunderground v.1.15,2013-04-28 15:10:00,
2013-04-28 11:11:00,61.2,48.1,30.18,ESE,107,0.0,0.0,62,0.00,,,0.00,Wunderground v.1.15,2013-04-28 15:11:00,
2013-04-28 11:12:00,61.2,48.1,30.18,ESE,107,0.0,0.0,62,0.00,,,0.00,Wunderground v.1.15,2013-04-28 15:12:00,
2013-04-28 11:15:00,61.2,48.5,30.18,ESE,108,0.0,1.0,63,0.00,,,0.00,Wunderground v.1.15,2013-04-28 15:15:00,
2013-04-28 11:16:00,61.2,48.5,30.18,ESE,107,0.0,1.0,63,0.00,,,0.00,Wunderground v.1.15,2013-04-28 15:16:00,
2013-04-28 11:17:00,61.2,48.9,30.18,ESE,107,0.0,1.0,64,0.00,,,0.00,Wunderground v.1.15,2013-04-28 15:17:00,
2013-04-28 11:20:00,61.1,48.8,30.18,ESE,107,1.0,1.0,64,0.00,,,0.00,Wunderground v.1.15,2013-04-28 15:20:00,
2013-04-28 11:21:00,61.1,48.4,30.18,ESE,108,0.0,1.0,63,0.00,,,0.00,Wunderground v.1.15,2013-04-28 15:21:00,
2013-04-28 11:23:00,61.0,48.3,30.18,ESE,108,0.0,1.0,63,0.00,,,0.00,Wunderground v.1.15,2013-04-28 15:23:00,
2013-04-28 11:25:00,61.0,48.7,30.18,ESE,108,0.0,1.0,64,0.00,,,0.00,Wunderground v.1.15,2013-04-28 15:25:00,
2013-04-28 11:26:00,60.9,48.6,30.18,ESE,109,0.0,1.0,64,0.00,,,0.00,Wunderground v.1.15,2013-04-28 15:26:00,
2013-04-28 11:28:00,60.9,48.6,30.18,ESE,109,1.0,2.0,64,0.00,,,0.00,Wunderground v.1.15,2013-04-28 15:28:00,
2013-04-28 11:30:00,60.9,49.1,30.18,ESE,109,1.0,1.0,65,0.00,,,0.00,Wunderground v.1.15,2013-04-28 15:30:00,
2013-04-28 11:31:00,60.9,48.6,30.18,ESE,109,0.0,1.0,64,0.00,,,0.00,Wunderground v.1.15,2013-04-28 15:31:00,
2013-04-28 11:32:00,60.9,48.6,30.18,ESE,109,0.0,1.0,64,0.00,,,0.00,Wunderground v.1.15,2013-04-28 15:32:00,
2013-04-28 11:33:00,60.8,49.0,30.18,SSE,150,0.0,1.0,65,0.00,,,0.00,Wunderground v.1.15,2013-04-28 15:33:00,
2013-04-28 11:35:00,60.8,48.5,30.18,SSE,150,0.0,1.0,64,0.00,,,0.00,Wunderground v.1.15,2013-04-28 15:35:00,
2013-04-28 11:37:00,60.8,49.0,30.18,SSE,150,0.0,1.0,65,0.00,,,0.00,Wunderground v.1.15,2013-04-28 15:37:00,
2013-04-28 11:39:00,60.8,49.0,30.18,SSE,150,0.0,1.0,65,0.00,,,0.00,Wunderground v.1.15,2013-04-28 15:39:00,
2013-04-28 11:40:00,60.7,49.3,30.18,SE,134,0.0,0.0,66,0.00,,,0.00,Wunderground v.1.15,2013-04-28 15:40:00,
2013-04-28 11:42:00,60.7,49.3,30.18,SE,134,0.0,1.0,66,0.00,,,0.00,Wunderground v.1.15,2013-04-28 15:42:00,
2013-04-28 11:44:00,60.5,49.9,30.18,SE,134,0.0,1.0,68,0.00,,,0.00,Wunderground v.1.15,2013-04-28 15:44:00,
2013-04-28 11:46:00,60.5,49.5,30.17,SE,134,0.0,1.0,67,0.00,,,0.00,Wunderground v.1.15,2013-04-28 15:46:00,
2013-04-28 11:47:00,60.4,50.2,30.18,SE,134,0.0,1.0,69,0.00,,,0.00,Wunderground v.1.15,2013-04-28 15:47:00,
2013-04-28 11:49:00,60.3,49.3,30.17,SE,134,0.0,1.0,67,0.00,,,0.00,Wunderground v.1.15,2013-04-28 15:49:00,
2013-04-28 11:51:00,60.3,49.7,30.17,SE,134,0.0,0.0,68,0.00,,,0.00,Wunderground v.1.15,2013-04-28 15:51:00,
2013-04-28 11:52:00,60.2,50.0,30.17,SE,134,0.0,0.0,69,0.00,,,0.00,Wunderground v.1.15,2013-04-28 15:52:00,
2013-04-28 11:54:00,60.2,49.6,30.17,SE,134,0.0,0.0,68,0.00,,,0.00,Wunderground v.1.15,2013-04-28 15:54:00,
2013-04-28 11:56:00,60.2,49.6,30.17,SE,134,0.0,0.0,68,0.00,,,0.00,Wunderground v.1.15,2013-04-28 15:56:00,
2013-04-28 11:57:00,60.2,49.2,30.17,SE,134,0.0,0.0,67,0.00,,,0.00,Wunderground v.1.15,2013-04-28 15:57:00,
2013-04-28 11:59:00,60.1,49.5,30.17,SE,134,0.0,0.0,68,0.00,,,0.00,Wunderground v.1.15,2013-04-28 15:59:00,
2013-04-28 12:01:00,60.1,49.1,30.17,SE,134,0.0,0.0,67,0.00,,,0.00,Wunderground v.1.15,2013-04-28 16:01:00,
2013-04-28 12:02:00,60.1,49.1,30.17,SE,134,0.0,0.0,67,0.00,,,0.00,Wunderground v.1.15,2013-04-28 16:02:00,
2013-04-28 12:03:00,60.1,49.5,30.17,SE,134,0.0,0.0,68,0.00,,,0.00,Wunderground v.1.15,2013-04-28 16:03:00,
2013-04-28 12:04:00,60.1,49.5,30.17,East,98,0.0,0.0,68,0.00,,,0.00,Wunderground v.1.15,2013-04-28 16:04:00,
2013-04-28 12:07:00,60.1,49.5,30.17,East,98,0.0,0.0,68,0.00,,,0.00,Wunderground v.1.15,2013-04-28 16:07:00,
2013-04-28 12:08:00,60.1,49.5,30.17,East,98,0.0,0.0,68,0.00,,,0.00,Wunderground v.1.15,2013-04-28 16:08:00,
2013-04-28 12:09:00,60.2,49.2,30.17,East,98,0.0,0.0,67,0.00,,,0.00,Wunderground v.1.15,2013-04-28 16:09:00,
2013-04-28 12:12:00,60.3,49.3,30.17,East,98,0.0,0.0,67,0.00,,,0.00,Wunderground v.1.15,2013-04-28 16:12:00,
2013-04-28 12:13:00,60.3,48.9,30.17,East,89,0.0,0.0,66,0.00,,,0.00,Wunderground v.1.15,2013-04-28 16:13:00,
2013-04-28 12:14:00,60.3,48.9,30.17,East,89,0.0,0.0,66,0.00,,,0.00,Wunderground v.1.15,2013-04-28 16:14:00,
2013-04-28 12:17:00,60.5,49.5,30.17,East,89,0.0,0.0,67,0.00,,,0.00,Wunderground v.1.15,2013-04-28 16:17:00,
2013-04-28 12:18:00,60.5,49.5,30.17,East,89,0.0,0.0,67,0.00,,,0.00,Wunderground v.1.15,2013-04-28 16:18:00,
2013-04-28 12:19:00,60.5,49.5,30.17,East,89,0.0,0.0,67,0.00,,,0.00,Wunderground v.1.15,2013-04-28 16:19:00,
2013-04-28 12:23:00,60.6,48.8,30.16,East,89,0.0,0.0,65,0.00,,,0.00,Wunderground v.1.15,2013-04-28 16:23:00,
2013-04-28 12:24:00,60.6,49.2,30.16,East,89,0.0,0.0,66,0.00,,,0.00,Wunderground v.1.15,2013-04-28 16:24:00,
2013-04-28 12:25:00,60.7,49.3,30.16,East,89,0.0,0.0,66,0.00,,,0.00,Wunderground v.1.15,2013-04-28 16:25:00,
2013-04-28 12:28:00,60.7,48.9,30.16,East,89,0.0,0.0,65,0.00,,,0.00,Wunderground v.1.15,2013-04-28 16:28:00,
2013-04-28 12:29:00,60.7,48.9,30.16,East,89,0.0,0.0,65,0.00,,,0.00,Wunderground v.1.15,2013-04-28 16:29:00,
2013-04-28 12:30:00,60.7,48.9,30.16,East,89,0.0,0.0,65,0.00,,,0.00,Wunderground v.1.15,2013-04-28 16:30:00,
2013-04-28 12:33:00,60.8,49.4,30.16,East,89,0.0,0.0,66,0.00,,,0.00,Wunderground v.1.15,2013-04-28 16:33:00,
2013-04-28 12:34:00,60.8,49.4,30.16,East,89,0.0,0.0,66,0.00,,,0.00,Wunderground v.1.15,2013-04-28 16:34:00,
2013-04-28 12:36:00,60.9,49.5,30.16,East,89,0.0,0.0,66,0.00,,,0.00,Wunderground v.1.15,2013-04-28 16:36:00,
2013-04-28 12:38:00,60.9,49.9,30.16,East,89,0.0,0.0,67,0.00,,,0.00,Wunderground v.1.15,2013-04-28 16:38:00,
2013-04-28 12:39:00,60.9,49.5,30.16,East,89,0.0,0.0,66,0.00,,,0.00,Wunderground v.1.15,2013-04-28 16:39:00,
2013-04-28 12:41:00,61.0,49.6,30.16,East,89,0.0,0.0,66,0.00,,,0.00,Wunderground v.1.15,2013-04-28 16:41:00,
2013-04-28 12:43:00,61.0,50.0,30.16,East,89,0.0,0.0,67,0.00,,,0.00,Wunderground v.1.15,2013-04-28 16:43:00,
2013-04-28 12:44:00,61.0,49.6,30.16,East,89,0.0,0.0,66,0.00,,,0.00,Wunderground v.1.15,2013-04-28 16:44:00,
2013-04-28 12:46:00,61.0,49.6,30.17,East,89,0.0,0.0,66,0.00,,,0.00,Wunderground v.1.15,2013-04-28 16:46:00,
2013-04-28 12:49:00,60.9,49.9,30.16,East,89,0.0,0.0,67,0.00,,,0.00,Wunderground v.1.15,2013-04-28 16:49:00,
2013-04-28 12:50:00,60.8,49.4,30.16,East,89,0.0,0.0,66,0.00,,,0.00,Wunderground v.1.15,2013-04-28 16:50:00,
2013-04-28 12:51:00,60.8,49.8,30.16,East,89,0.0,0.0,67,0.00,,,0.00,Wunderground v.1.15,2013-04-28 16:51:00,
2013-04-28 12:54:00,60.8,50.6,30.16,East,89,0.0,0.0,69,0.00,,,0.00,Wunderground v.1.15,2013-04-28 16:54:00,
2013-04-28 12:55:00,60.8,50.2,30.16,East,89,0.0,0.0,68,0.00,,,0.00,Wunderground v.1.15,2013-04-28 16:55:00,
2013-04-28 12:56:00,60.7,50.5,30.16,East,89,0.0,0.0,69,0.00,,,0.00,Wunderground v.1.15,2013-04-28 16:56:00,
2013-04-28 12:59:00,60.6,50.8,30.16,East,89,0.0,0.0,70,0.00,,,0.00,Wunderground v.1.15,2013-04-28 16:59:00,
2013-04-28 13:00:00,60.5,50.3,30.16,East,89,0.0,0.0,69,0.00,,,0.00,Wunderground v.1.15,2013-04-28 17:00:00,
2013-04-28 13:01:00,60.5,49.9,30.16,East,89,0.0,0.0,68,0.00,,,0.00,Wunderground v.1.15,2013-04-28 17:01:00,
2013-04-28 13:05:00,60.4,51.0,30.16,East,89,0.0,0.0,71,0.00,,,0.00,Wunderground v.1.15,2013-04-28 17:05:00,
2013-04-28 13:06:00,60.4,50.6,30.16,East,89,0.0,0.0,70,0.00,,,0.00,Wunderground v.1.15,2013-04-28 17:06:00,
2013-04-28 13:07:00,60.4,50.6,30.16,East,89,0.0,0.0,70,0.00,,,0.00,Wunderground v.1.15,2013-04-28 17:07:00,
2013-04-28 13:10:00,60.4,51.3,30.15,East,89,0.0,0.0,72,0.00,,,0.00,Wunderground v.1.15,2013-04-28 17:10:00,
2013-04-28 13:11:00,60.3,51.2,30.15,East,89,0.0,0.0,72,0.00,,,0.00,Wunderground v.1.15,2013-04-28 17:11:00,
2013-04-28 13:12:00,60.3,50.9,30.15,East,89,0.0,0.0,71,0.00,,,0.00,Wunderground v.1.15,2013-04-28 17:12:00,
2013-04-28 13:15:00,60.2,51.5,30.15,East,89,0.0,0.0,73,0.00,,,0.00,Wunderground v.1.15,2013-04-28 17:15:00,
2013-04-28 13:16:00,60.2,51.5,30.15,East,89,0.0,0.0,73,0.00,,,0.00,Wunderground v.1.15,2013-04-28 17:16:00,
2013-04-28 13:17:00,60.2,52.2,30.15,East,89,0.0,0.0,75,0.00,,,0.00,Wunderground v.1.15,2013-04-28 17:17:00,
2013-04-28 13:20:00,60.3,52.7,30.15,East,89,0.0,0.0,76,0.00,,,0.00,Wunderground v.1.15,2013-04-28 17:20:00,
2013-04-28 13:21:00,60.3,53.1,30.15,East,89,0.0,0.0,77,0.00,,,0.00,Wunderground v.1.15,2013-04-28 17:21:00,
2013-04-28 13:22:00,60.3,52.3,30.15,East,89,0.0,0.0,75,0.00,,,0.00,Wunderground v.1.15,2013-04-28 17:22:00,
2013-04-28 13:25:00,60.3,52.3,30.15,East,89,0.0,0.0,75,0.00,,,0.00,Wunderground v.1.15,2013-04-28 17:25:00,
2013-04-28 13:27:00,60.3,52.7,30.15,East,79,0.0,0.0,76,0.00,,,0.00,Wunderground v.1.15,2013-04-28 17:27:00,
2013-04-28 13:30:00,60.3,52.3,30.15,East,79,0.0,0.0,75,0.00,,,0.00,Wunderground v.1.15,2013-04-28 17:30:00,
2013-04-28 13:32:00,60.4,52.4,30.15,East,79,0.0,0.0,75,0.00,,,0.00,Wunderground v.1.15,2013-04-28 17:32:00,
2013-04-28 13:33:00,60.4,52.4,30.14,East,79,0.0,0.0,75,0.00,,,0.00,Wunderground v.1.15,2013-04-28 17:33:00,
2013-04-28 13:35:00,60.5,53.3,30.14,East,79,0.0,0.0,77,0.00,,,0.00,Wunderground v.1.15,2013-04-28 17:35:00,
2013-04-28 13:37:00,60.7,53.4,30.14,East,79,0.0,0.0,77,0.00,,,0.00,Wunderground v.1.15,2013-04-28 17:37:00,
2013-04-28 13:38:00,60.7,53.1,30.14,ENE,78,3.0,3.0,76,0.00,,,0.00,Wunderground v.1.15,2013-04-28 17:38:00,
2013-04-28 13:40:00,60.6,52.3,30.14,ENE,77,3.0,3.0,74,0.00,,,0.00,Wunderground v.1.15,2013-04-28 17:40:00,
2013-04-28 13:42:00,60.6,51.9,30.14,East,91,1.0,3.0,73,0.00,,,0.00,Wunderground v.1.15,2013-04-28 17:42:00,
2013-04-28 13:43:00,60.6,52.3,30.14,ENE,78,1.0,3.0,74,0.00,,,0.00,Wunderground v.1.15,2013-04-28 17:43:00,
2013-04-28 13:45:00,60.7,52.4,30.14,ENE,77,1.0,3.0,74,0.00,,,0.00,Wunderground v.1.15,2013-04-28 17:45:00,
2013-04-28 13:47:00,60.7,52.4,30.14,ENE,75,3.0,3.0,74,0.00,,,0.00,Wunderground v.1.15,2013-04-28 17:47:00,
2013-04-28 13:48:00,60.7,52.0,30.14,East,83,2.0,3.0,73,0.00,,,0.00,Wunderground v.1.15,2013-04-28 17:48:00,
2013-04-28 13:49:00,60.7,52.0,30.14,East,83,1.0,3.0,73,0.00,,,0.00,Wunderground v.1.15,2013-04-28 17:49:00,
2013-04-28 13:51:00,60.7,52.0,30.14,ENE,64,1.0,3.0,73,0.00,,,0.00,Wunderground v.1.15,2013-04-28 17:51:00,
2013-04-28 13:52:00,60.7,52.4,30.14,ENE,72,2.0,3.0,74,0.00,,,0.00,Wunderground v.1.15,2013-04-28 17:52:00,
2013-04-28 13:53:00,60.8,52.1,30.13,ENE,72,1.0,3.0,73,0.00,,,0.00,Wunderground v.1.15,2013-04-28 17:53:00,
2013-04-28 13:54:00,60.8,52.1,30.13,ENE,72,1.0,3.0,73,0.00,,,0.00,Wunderground v.1.15,2013-04-28 17:54:00,
2013-04-28 13:56:00,60.8,52.1,30.13,ENE,72,1.0,3.0,73,0.00,,,0.00,Wunderground v.1.15,2013-04-28 17:56:00,
2013-04-28 13:58:00,60.9,52.2,30.14,ENE,72,1.0,3.0,73,0.00,,,0.00,Wunderground v.1.15,2013-04-28 17:58:00,
2013-04-28 13:59:00,60.9,51.8,30.13,ENE,72,0.0,3.0,72,0.00,,,0.00,Wunderground v.1.15,2013-04-28 17:59:00,
2013-04-28 14:01:00,61.0,52.3,30.14,ENE,72,0.0,2.0,73,0.00,,,0.00,Wunderground v.1.15,2013-04-28 18:01:00,
2013-04-28 14:03:00,61.0,52.3,30.13,ENE,72,0.0,2.0,73,0.00,,,0.00,Wunderground v.1.15,2013-04-28 18:03:00,
2013-04-28 14:04:00,61.0,52.3,30.14,ENE,72,0.0,2.0,73,0.00,,,0.00,Wunderground v.1.15,2013-04-28 18:04:00,
2013-04-28 14:05:00,61.1,52.4,30.14,ENE,72,1.0,2.0,73,0.00,,,0.00,Wunderground v.1.15,2013-04-28 18:05:00,
2013-04-28 14:06:00,61.1,52.4,30.13,ENE,72,0.0,2.0,73,0.00,,,0.00,Wunderground v.1.15,2013-04-28 18:06:00,
2013-04-28 14:08:00,61.1,52.4,30.13,ENE,72,0.0,2.0,73,0.00,,,0.00,Wunderground v.1.15,2013-04-28 18:08:00,
2013-04-28 14:09:00,61.1,52.7,30.13,ENE,72,0.0,2.0,74,0.00,,,0.00,Wunderground v.1.15,2013-04-28 18:09:00,
2013-04-28 14:10:00,61.1,52.7,30.13,ENE,72,0.0,0.0,74,0.00,,,0.00,Wunderground v.1.15,2013-04-28 18:10:00,
2013-04-28 14:11:00,61.2,52.8,30.13,ENE,72,0.0,0.0,74,0.00,,,0.00,Wunderground v.1.15,2013-04-28 18:11:00,
2013-04-28 14:13:00,61.2,52.5,30.13,ENE,72,1.0,1.0,73,0.00,,,0.00,Wunderground v.1.15,2013-04-28 18:13:00,
2013-04-28 14:14:00,61.2,52.5,30.13,ENE,72,0.0,1.0,73,0.00,,,0.00,Wunderground v.1.15,2013-04-28 18:14:00,
2013-04-28 14:15:00,61.2,52.5,30.13,ENE,72,1.0,1.0,73,0.00,,,0.00,Wunderground v.1.15,2013-04-28 18:15:00,
2013-04-28 14:16:00,61.2,52.5,30.13,ENE,72,0.0,1.0,73,0.00,,,0.00,Wunderground v.1.15,2013-04-28 18:16:00,
2013-04-28 14:18:00,61.2,52.5,30.13,ENE,72,0.0,1.0,73,0.00,,,0.00,Wunderground v.1.15,2013-04-28 18:18:00,
2013-04-28 14:19:00,61.2,52.5,30.13,ENE,72,0.0,1.0,73,0.00,,,0.00,Wunderground v.1.15,2013-04-28 18:19:00,
2013-04-28 14:20:00,61.2,53.2,30.13,ENE,72,0.0,0.0,75,0.00,,,0.00,Wunderground v.1.15,2013-04-28 18:20:00,
2013-04-28 14:21:00,61.2,52.5,30.13,ENE,78,2.0,2.0,73,0.00,,,0.00,Wunderground v.1.15,2013-04-28 18:21:00,
2013-04-28 14:23:00,61.2,52.1,30.13,ENE,78,1.0,2.0,72,0.00,,,0.00,Wunderground v.1.15,2013-04-28 18:23:00,
2013-04-28 14:24:00,61.2,52.1,30.13,ENE,77,1.0,2.0,72,0.00,,,0.00,Wunderground v.1.15,2013-04-28 18:24:00,
2013-04-28 14:25:00,61.2,52.1,30.13,East,79,0.0,2.0,72,0.00,,,0.00,Wunderground v.1.15,2013-04-28 18:25:00,
2013-04-28 14:27:00,61.2,52.1,30.12,East,79,0.0,2.0,72,0.00,,,0.00,Wunderground v.1.15,2013-04-28 18:27:00,
2013-04-28 14:28:00,61.2,52.1,30.12,East,79,2.0,3.0,72,0.00,,,0.00,Wunderground v.1.15,2013-04-28 18:28:00,
2013-04-28 14:29:00,61.2,52.1,30.12,East,79,1.0,3.0,72,0.00,,,0.00,Wunderground v.1.15,2013-04-28 18:29:00,
2013-04-28 14:31:00,61.2,52.5,30.12,East,82,2.0,2.0,73,0.00,,,0.00,Wunderground v.1.15,2013-04-28 18:31:00,
2013-04-28 14:32:00,61.2,52.1,30.12,East,82,1.0,2.0,72,0.00,,,0.00,Wunderground v.1.15,2013-04-28 18:32:00,
2013-04-28 14:33:00,61.1,52.0,30.12,East,82,0.0,2.0,72,0.00,,,0.00,Wunderground v.1.15,2013-04-28 18:33:00,
2013-04-28 14:34:00,61.1,52.0,30.12,East,82,0.0,2.0,72,0.00,,,0.00,Wunderground v.1.15,2013-04-28 18:34:00,
2013-04-28 14:36:00,61.1,52.0,30.12,SE,128,0.0,2.0,72,0.00,,,0.00,Wunderground v.1.15,2013-04-28 18:36:00,
2013-04-28 14:37:00,61.1,52.0,30.12,SE,129,1.0,2.0,72,0.00,,,0.00,Wunderground v.1.15,2013-04-28 18:37:00,
2013-04-28 14:38:00,61.1,52.4,30.12,SE,128,0.0,2.0,73,0.00,,,0.00,Wunderground v.1.15,2013-04-28 18:38:00,
2013-04-28 14:39:00,61.1,52.4,30.12,ENE,75,2.0,2.0,73,0.00,,,0.00,Wunderground v.1.15,2013-04-28 18:39:00,
2013-04-28 14:41:00,61.1,51.6,30.12,ENE,77,1.0,2.0,71,0.00,,,0.00,Wunderground v.1.15,2013-04-28 18:41:00,
2013-04-28 14:42:00,61.1,51.6,30.12,ENE,78,1.0,2.0,71,0.00,,,0.00,Wunderground v.1.15,2013-04-28 18:42:00,
2013-04-28 14:43:00,61.1,52.0,30.12,ENE,78,0.0,2.0,72,0.00,,,0.00,Wunderground v.1.15,2013-04-28 18:43:00,
2013-04-28 14:44:00,61.1,52.0,30.12,ENE,77,0.0,2.0,72,0.00,,,0.00,Wunderground v.1.15,2013-04-28 18:44:00,
2013-04-28 14:47:00,61.1,52.0,30.11,ENE,77,1.0,2.0,72,0.00,,,0.00,Wunderground v.1.15,2013-04-28 18:47:00,
2013-04-28 14:48:00,61.1,52.0,30.11,ENE,77,1.0,2.0,72,0.00,,,0.00,Wunderground v.1.15,2013-04-28 18:48:00,
2013-04-28 14:49:00,61.1,52.0,30.11,ENE,77,1.0,2.0,72,0.00,,,0.00,Wunderground v.1.15,2013-04-28 18:49:00,
2013-04-28 14:50:00,61.2,52.5,30.11,ENE,78,2.0,2.0,73,0.00,,,0.00,Wunderground v.1.15,2013-04-28 18:50:00,
2013-04-28 14:52:00,61.2,52.1,30.11,ENE,74,0.0,2.0,72,0.00,,,0.00,Wunderground v.1.15,2013-04-28 18:52:00,
2013-04-28 14:54:00,61.2,52.1,30.11,ENE,73,0.0,2.0,72,0.00,,,0.00,Wunderground v.1.15,2013-04-28 18:54:00,
2013-04-28 14:55:00,61.2,52.5,30.11,ENE,73,0.0,2.0,73,0.00,,,0.00,Wunderground v.1.15,2013-04-28 18:55:00,
2013-04-28 14:57:00,61.3,52.6,30.11,ENE,74,0.0,2.0,73,0.00,,,0.00,Wunderground v.1.15,2013-04-28 18:57:00,
2013-04-28 14:59:00,61.3,52.2,30.11,ENE,75,1.0,2.0,72,0.00,,,0.00,Wunderground v.1.15,2013-04-28 18:59:00,
2013-04-28 15:00:00,61.3,52.2,30.11,ENE,75,1.0,1.0,72,0.00,,,0.00,Wunderground v.1.15,2013-04-28 19:00:00,
2013-04-28 15:01:00,61.4,52.7,30.11,ENE,75,1.0,1.0,73,0.00,,,0.00,Wunderground v.1.15,2013-04-28 19:01:00,
2013-04-28 15:02:00,61.4,52.3,30.11,East,79,0.0,2.0,72,0.00,,,0.00,Wunderground v.1.15,2013-04-28 19:02:00,
2013-04-28 15:04:00,61.5,52.4,30.11,East,79,1.0,2.0,72,0.00,,,0.00,Wunderground v.1.15,2013-04-28 19:04:00,
2013-04-28 15:05:00,61.5,52.4,30.11,East,79,1.0,2.0,72,0.00,,,0.00,Wunderground v.1.15,2013-04-28 19:05:00,
2013-04-28 15:06:00,61.5,52.4,30.11,East,79,0.0,2.0,72,0.00,,,0.00,Wunderground v.1.15,2013-04-28 19:06:00,
2013-04-28 15:08:00,61.6,52.5,30.10,East,79,2.0,2.0,72,0.00,,,0.00,Wunderground v.1.15,2013-04-28 19:08:00,
2013-04-28 15:09:00,61.6,52.5,30.11,ENE,75,1.0,2.0,72,0.00,,,0.00,Wunderground v.1.15,2013-04-28 19:09:00,
2013-04-28 15:11:00,61.6,52.5,30.10,ENE,75,1.0,1.0,72,0.00,,,0.00,Wunderground v.1.15,2013-04-28 19:11:00,
2013-04-28 15:13:00,61.7,52.2,30.10,ENE,75,2.0,2.0,71,0.00,,,0.00,Wunderground v.1.15,2013-04-28 19:13:00,
2013-04-28 15:14:00,61.7,52.2,30.10,ENE,75,0.0,2.0,71,0.00,,,0.00,Wunderground v.1.15,2013-04-28 19:14:00,
2013-04-28 15:15:00,61.7,52.2,30.10,ENE,75,1.0,2.0,71,0.00,,,0.00,Wunderground v.1.15,2013-04-28 19:15:00,
2013-04-28 15:16:00,61.8,52.3,30.10,ENE,75,1.0,2.0,71,0.00,,,0.00,Wunderground v.1.15,2013-04-28 19:16:00,
2013-04-28 15:17:00,61.8,52.3,30.10,ENE,75,0.0,2.0,71,0.00,,,0.00,Wunderground v.1.15,2013-04-28 19:17:00,
2013-04-28 15:18:00,61.9,52.4,30.10,ENE,75,0.0,2.0,71,0.00,,,0.00,Wunderground v.1.15,2013-04-28 19:18:00,
2013-04-28 15:19:00,61.9,52.8,30.10,ENE,75,0.0,2.0,72,0.00,,,0.00,Wunderground v.1.15,2013-04-28 19:19:00,
2013-04-28 15:20:00,61.9,52.4,30.10,ENE,75,0.0,2.0,71,0.00,,,0.00,Wunderground v.1.15,2013-04-28 19:20:00,
2013-04-28 15:21:00,62.0,52.5,30.10,ENE,75,0.0,1.0,71,0.00,,,0.00,Wunderground v.1.15,2013-04-28 19:21:00,
2013-04-28 15:22:00,62.0,52.9,30.10,SW,217,0.0,1.0,72,0.00,,,0.00,Wunderground v.1.15,2013-04-28 19:22:00,
2013-04-28 15:24:00,62.0,52.5,30.10,ENE,77,1.0,2.0,71,0.00,,,0.00,Wunderground v.1.15,2013-04-28 19:24:00,
2013-04-28 15:25:00,62.0,52.5,30.10,ENE,78,0.0,2.0,71,0.00,,,0.00,Wunderground v.1.15,2013-04-28 19:25:00,
2013-04-28 15:26:00,62.1,52.6,30.10,ENE,78,1.0,2.0,71,0.00,,,0.00,Wunderground v.1.15,2013-04-28 19:26:00,
2013-04-28 15:27:00,62.1,52.6,30.10,ENE,78,1.0,2.0,71,0.00,,,0.00,Wunderground v.1.15,2013-04-28 19:27:00,
2013-04-28 15:29:00,62.1,52.2,30.10,ENE,77,0.0,2.0,70,0.00,,,0.00,Wunderground v.1.15,2013-04-28 19:29:00,
2013-04-28 15:30:00,62.2,52.3,30.10,ENE,78,1.0,2.0,70,0.00,,,0.00,Wunderground v.1.15,2013-04-28 19:30:00,
2013-04-28 15:31:00,62.2,52.7,30.10,ENE,78,0.0,2.0,71,0.00,,,0.00,Wunderground v.1.15,2013-04-28 19:31:00,
2013-04-28 15:32:00,62.3,52.8,30.10,ENE,77,1.0,2.0,71,0.00,,,0.00,Wunderground v.1.15,2013-04-28 19:32:00,
2013-04-28 15:34:00,62.3,52.4,30.09,East,84,1.0,2.0,70,0.00,,,0.00,Wunderground v.1.15,2013-04-28 19:34:00,
2013-04-28 15:35:00,62.3,52.4,30.09,East,84,1.0,2.0,70,0.00,,,0.00,Wunderground v.1.15,2013-04-28 19:35:00,
2013-04-28 15:37:00,62.3,52.8,30.09,East,83,0.0,2.0,71,0.00,,,0.00,Wunderground v.1.15,2013-04-28 19:37:00,
2013-04-28 15:39:00,62.4,53.3,30.09,East,83,1.0,2.0,72,0.00,,,0.00,Wunderground v.1.15,2013-04-28 19:39:00,
2013-04-28 15:40:00,62.4,53.3,30.09,East,84,1.0,1.0,72,0.00,,,0.00,Wunderground v.1.15,2013-04-28 19:40:00,
2013-04-28 15:41:00,62.4,53.3,30.09,East,84,1.0,1.0,72,0.00,,,0.00,Wunderground v.1.15,2013-04-28 19:41:00,
2013-04-28 15:42:00,62.3,53.2,30.09,East,83,0.0,1.0,72,0.00,,,0.00,Wunderground v.1.15,2013-04-28 19:42:00,
2013-04-28 15:43:00,62.3,53.2,30.09,East,83,1.0,1.0,72,0.00,,,0.00,Wunderground v.1.15,2013-04-28 19:43:00,
2013-04-28 15:45:00,62.2,53.1,30.08,East,83,1.0,2.0,72,0.00,,,0.00,Wunderground v.1.15,2013-04-28 19:45:00,
2013-04-28 15:46:00,62.1,53.0,30.09,East,83,1.0,2.0,72,0.00,,,0.00,Wunderground v.1.15,2013-04-28 19:46:00,
2013-04-28 15:47:00,62.1,53.0,30.08,East,83,1.0,2.0,72,0.00,,,0.00,Wunderground v.1.15,2013-04-28 19:47:00,
2013-04-28 15:48:00,62.0,52.5,30.08,East,83,1.0,2.0,71,0.00,,,0.00,Wunderground v.1.15,2013-04-28 19:48:00,
2013-04-28 15:50:00,62.0,52.9,30.08,East,83,1.0,1.0,72,0.00,,,0.00,Wunderground v.1.15,2013-04-28 19:50:00,
2013-04-28 15:51:00,61.9,52.8,30.08,East,83,1.0,2.0,72,0.00,,,0.00,Wunderground v.1.15,2013-04-28 19:51:00,
2013-04-28 15:52:00,61.9,52.4,30.08,East,84,0.0,2.0,71,0.00,,,0.00,Wunderground v.1.15,2013-04-28 19:52:00,
2013-04-28 15:53:00,61.9,52.4,30.08,East,83,0.0,2.0,71,0.00,,,0.00,Wunderground v.1.15,2013-04-28 19:53:00,
2013-04-28 15:55:00,61.9,52.8,30.08,East,83,0.0,2.0,72,0.00,,,0.00,Wunderground v.1.15,2013-04-28 19:55:00,
2013-04-28 15:56:00,61.9,52.8,30.08,East,83,1.0,2.0,72,0.00,,,0.00,Wunderground v.1.15,2013-04-28 19:56:00,
2013-04-28 15:57:00,61.8,52.7,30.08,East,83,0.0,2.0,72,0.00,,,0.00,Wunderground v.1.15,2013-04-28 19:57:00,
2013-04-28 15:58:00,61.9,53.1,30.08,East,83,0.0,2.0,73,0.00,,,0.00,Wunderground v.1.15,2013-04-28 19:58:00,